Time,TemperatureF,DewpointF,PressureIn,WindDirection,WindDirectionDegrees,WindSpeedMPH,WindSpeedGustMPH,Humidity,HourlyPrecipIn,Conditions,Clouds,dailyrainin,SoftwareType,DateUTC
2013-04-04 00:00:00,30.0,14.5,30.23,NNW,342,8.0,8.0,52,0.00,,,0.00,Wunderground v.1.15,2013-04-04 04:00:00,
2013-04-04 00:01:00,30.0,14.5,30.23,NNW,335,7.0,8.0,52,0.00,,,0.00,Wunderground v.1.15,2013-04-04 04:01:00,
2013-04-04 00:05:00,30.0,14.5,30.23,NNW,333,7.0,8.0,52,0.00,,,0.00,Wunderground v.1.15,2013-04-04 04:05:00,
2013-04-04 00:07:00,30.0,14.5,30.23,North,351,10.0,10.0,52,0.00,,,0.00,Wunderground v.1.15,2013-04-04 04:07:00,
2013-04-04 00:10:00,30.0,14.5,30.23,North,9,10.0,10.0,52,0.00,,,0.00,Wunderground v.1.15,2013-04-04 04:10:00,
2013-04-04 00:12:00,30.0,14.5,30.24,NNW,347,4.0,10.0,52,0.00,,,0.00,Wunderground v.1.15,2013-04-04 04:12:00,
2013-04-04 00:15:00,29.9,14.4,30.24,NNW,342,8.0,10.0,52,0.00,,,0.00,Wunderground v.1.15,2013-04-04 04:15:00,
2013-04-04 00:16:00,29.9,14.8,30.23,NNW,336,5.0,10.0,53,0.00,,,0.00,Wunderground v.1.15,2013-04-04 04:16:00,
2013-04-04 00:19:00,29.9,14.8,30.23,NNW,343,8.0,12.0,53,0.00,,,0.00,Wunderground v.1.15,2013-04-04 04:19:00,
2013-04-04 00:22:00,29.9,14.4,30.23,NNW,347,7.0,8.0,52,0.00,,,0.00,Wunderground v.1.15,2013-04-04 04:22:00,
2013-04-04 00:24:00,30.0,14.5,30.24,NW,315,5.0,8.0,52,0.00,,,0.00,Wunderground v.1.15,2013-04-04 04:24:00,
2013-04-04 00:25:00,30.0,14.5,30.24,NNW,333,3.0,8.0,52,0.00,,,0.00,Wunderground v.1.15,2013-04-04 04:25:00,
2013-04-04 00:29:00,29.9,14.4,30.24,NNW,340,7.0,10.0,52,0.00,,,0.00,Wunderground v.1.15,2013-04-04 04:29:00,
2013-04-04 00:30:00,29.9,14.4,30.24,ENE,61,4.0,7.0,52,0.00,,,0.00,Wunderground v.1.15,2013-04-04 04:30:00,
2013-04-04 00:32:00,29.9,14.4,30.24,North,11,7.0,12.0,52,0.00,,,0.00,Wunderground v.1.15,2013-04-04 04:32:00,
2013-04-04 00:34:00,30.0,14.5,30.24,NE,41,3.0,12.0,52,0.00,,,0.00,Wunderground v.1.15,2013-04-04 04:34:00,
2013-04-04 00:35:00,30.0,14.5,30.24,NNW,338,5.0,12.0,52,0.00,,,0.00,Wunderground v.1.15,2013-04-04 04:35:00,
2013-04-04 00:39:00,29.9,14.8,30.24,NNW,338,6.0,12.0,53,0.00,,,0.00,Wunderground v.1.15,2013-04-04 04:39:00,
2013-04-04 00:40:00,29.9,14.8,30.24,NNW,342,5.0,6.0,53,0.00,,,0.00,Wunderground v.1.15,2013-04-04 04:40:00,
2013-04-04 00:42:00,29.8,14.7,30.24,NNW,347,5.0,6.0,53,0.00,,,0.00,Wunderground v.1.15,2013-04-04 04:42:00,
2013-04-04 00:46:00,29.8,14.7,30.24,NNW,341,5.0,9.0,53,0.00,,,0.00,Wunderground v.1.15,2013-04-04 04:46:00,
2013-04-04 00:48:00,29.7,14.6,30.24,NNW,345,5.0,9.0,53,0.00,,,0.00,Wunderground v.1.15,2013-04-04 04:48:00,
2013-04-04 00:50:00,29.6,14.5,30.24,North,349,6.0,6.0,53,0.00,,,0.00,Wunderground v.1.15,2013-04-04 04:50:00,
2013-04-04 00:51:00,29.6,14.5,30.24,NNW,348,4.0,6.0,53,0.00,,,0.00,Wunderground v.1.15,2013-04-04 04:51:00,
2013-04-04 00:57:00,29.5,14.9,30.24,North,1,4.0,9.0,54,0.00,,,0.00,Wunderground v.1.15,2013-04-04 04:57:00,
2013-04-04 00:58:00,29.6,15.0,30.24,NNE,27,4.0,9.0,54,0.00,,,0.00,Wunderground v.1.15,2013-04-04 04:58:00,
2013-04-04 00:59:00,29.5,14.9,30.24,NNW,343,2.0,9.0,54,0.00,,,0.00,Wunderground v.1.15,2013-04-04 04:59:00,
2013-04-04 01:01:00,29.5,14.9,30.24,NW,314,5.0,6.0,54,0.00,,,0.00,Wunderground v.1.15,2013-04-04 05:01:00,
2013-04-04 01:03:00,29.5,14.9,30.25,North,356,5.0,7.0,54,0.00,,,0.00,Wunderground v.1.15,2013-04-04 05:03:00,
2013-04-04 01:08:00,29.5,14.9,30.24,NW,326,2.0,7.0,54,0.00,,,0.00,Wunderground v.1.15,2013-04-04 05:08:00,
2013-04-04 01:09:00,29.5,14.9,30.24,NE,34,3.0,7.0,54,0.00,,,0.00,Wunderground v.1.15,2013-04-04 05:09:00,
2013-04-04 01:11:00,29.4,14.8,30.24,NNW,333,4.0,5.0,54,0.00,,,0.00,Wunderground v.1.15,2013-04-04 05:11:00,
2013-04-04 01:12:00,29.4,14.8,30.24,NNW,330,1.0,5.0,54,0.00,,,0.00,Wunderground v.1.15,2013-04-04 05:12:00,
2013-04-04 01:14:00,29.4,14.8,30.24,ENE,65,3.0,6.0,54,0.00,,,0.00,Wunderground v.1.15,2013-04-04 05:14:00,
2013-04-04 01:19:00,29.5,15.3,30.24,NW,316,3.0,6.0,55,0.00,,,0.00,Wunderground v.1.15,2013-04-04 05:19:00,
2013-04-04 01:20:00,29.5,14.9,30.24,North,5,7.0,7.0,54,0.00,,,0.00,Wunderground v.1.15,2013-04-04 05:20:00,
2013-04-04 01:21:00,29.5,14.9,30.24,NNW,337,9.0,9.0,54,0.00,,,0.00,Wunderground v.1.15,2013-04-04 05:21:00,
2013-04-04 01:23:00,29.4,15.2,30.24,NW,315,3.0,9.0,55,0.00,,,0.00,Wunderground v.1.15,2013-04-04 05:23:00,
2013-04-04 01:25:00,29.4,15.2,30.24,NNW,332,2.0,9.0,55,0.00,,,0.00,Wunderground v.1.15,2013-04-04 05:25:00,
2013-04-04 01:27:00,29.3,15.1,30.24,NNE,25,2.0,9.0,55,0.00,,,0.00,Wunderground v.1.15,2013-04-04 05:27:00,
2013-04-04 01:32:00,29.2,15.0,30.24,NNW,345,3.0,6.0,55,0.00,,,0.00,Wunderground v.1.15,2013-04-04 05:32:00,
2013-04-04 01:33:00,29.2,15.0,30.24,ENE,68,8.0,8.0,55,0.00,,,0.00,Wunderground v.1.15,2013-04-04 05:33:00,
2013-04-04 01:35:00,29.2,15.0,30.24,North,352,5.0,8.0,55,0.00,,,0.00,Wunderground v.1.15,2013-04-04 05:35:00,
2013-04-04 01:38:00,29.2,15.4,30.24,NNW,341,2.0,8.0,56,0.00,,,0.00,Wunderground v.1.15,2013-04-04 05:38:00,
2013-04-04 01:39:00,29.2,15.4,30.24,ESE,105,0.0,8.0,56,0.00,,,0.00,Wunderground v.1.15,2013-04-04 05:39:00,
2013-04-04 01:43:00,29.1,15.3,30.24,NNW,333,4.0,7.0,56,0.00,,,0.00,Wunderground v.1.15,2013-04-04 05:43:00,
2013-04-04 01:44:00,29.1,15.3,30.24,NNW,333,3.0,7.0,56,0.00,,,0.00,Wunderground v.1.15,2013-04-04 05:44:00,
2013-04-04 01:46:00,29.0,15.2,30.24,North,359,4.0,7.0,56,0.00,,,0.00,Wunderground v.1.15,2013-04-04 05:46:00,
2013-04-04 01:48:00,29.0,15.7,30.24,NNE,18,8.0,8.0,57,0.00,,,0.00,Wunderground v.1.15,2013-04-04 05:48:00,
2013-04-04 01:49:00,29.1,15.7,30.24,NNW,330,4.0,8.0,57,0.00,,,0.00,Wunderground v.1.15,2013-04-04 05:49:00,
2013-04-04 01:54:00,29.0,15.7,30.24,North,11,4.0,5.0,57,0.00,,,0.00,Wunderground v.1.15,2013-04-04 05:54:00,
2013-04-04 01:55:00,29.1,15.7,30.24,NE,51,4.0,5.0,57,0.00,,,0.00,Wunderground v.1.15,2013-04-04 05:55:00,
2013-04-04 01:56:00,29.1,15.7,30.24,NNE,15,5.0,5.0,57,0.00,,,0.00,Wunderground v.1.15,2013-04-04 05:56:00,
2013-04-04 01:57:00,29.2,15.8,30.24,North,349,5.0,5.0,57,0.00,,,0.00,Wunderground v.1.15,2013-04-04 05:57:00,
2013-04-04 02:00:00,29.3,15.9,30.24,NNW,345,2.0,3.0,57,0.00,,,0.00,Wunderground v.1.15,2013-04-04 06:00:00,
2013-04-04 02:01:00,29.2,15.8,30.24,NNW,328,3.0,3.0,57,0.00,,,0.00,Wunderground v.1.15,2013-04-04 06:01:00,
2013-04-04 02:03:00,29.2,15.8,30.24,NNE,13,2.0,5.0,57,0.00,,,0.00,Wunderground v.1.15,2013-04-04 06:03:00,
2013-04-04 02:05:00,29.2,15.8,30.24,North,10,2.0,8.0,57,0.00,,,0.00,Wunderground v.1.15,2013-04-04 06:05:00,
2013-04-04 02:07:00,29.2,15.8,30.24,ENE,70,6.0,8.0,57,0.00,,,0.00,Wunderground v.1.15,2013-04-04 06:07:00,
2013-04-04 02:08:00,29.2,15.8,30.24,NNW,343,9.0,9.0,57,0.00,,,0.00,Wunderground v.1.15,2013-04-04 06:08:00,
2013-04-04 02:11:00,29.2,15.8,30.24,NE,36,3.0,5.0,57,0.00,,,0.00,Wunderground v.1.15,2013-04-04 06:11:00,
2013-04-04 02:12:00,29.1,15.7,30.24,NNW,348,1.0,5.0,57,0.00,,,0.00,Wunderground v.1.15,2013-04-04 06:12:00,
2013-04-04 02:13:00,29.1,15.7,30.24,North,359,3.0,5.0,57,0.00,,,0.00,Wunderground v.1.15,2013-04-04 06:13:00,
2013-04-04 02:16:00,29.0,15.7,30.24,North,6,1.0,5.0,57,0.00,,,0.00,Wunderground v.1.15,2013-04-04 06:16:00,
2013-04-04 02:17:00,28.9,15.6,30.24,NNW,347,2.0,6.0,57,0.00,,,0.00,Wunderground v.1.15,2013-04-04 06:17:00,
2013-04-04 02:18:00,28.9,15.6,30.24,NNW,340,3.0,7.0,57,0.00,,,0.00,Wunderground v.1.15,2013-04-04 06:18:00,
2013-04-04 02:21:00,28.9,16.0,30.24,NW,311,1.0,2.0,58,0.00,,,0.00,Wunderground v.1.15,2013-04-04 06:21:00,
2013-04-04 02:22:00,28.8,15.9,30.24,North,354,1.0,3.0,58,0.00,,,0.00,Wunderground v.1.15,2013-04-04 06:22:00,
2013-04-04 02:24:00,28.7,15.8,30.24,NNW,337,1.0,3.0,58,0.00,,,0.00,Wunderground v.1.15,2013-04-04 06:24:00,
2013-04-04 02:26:00,28.6,15.7,30.24,ENE,64,1.0,4.0,58,0.00,,,0.00,Wunderground v.1.15,2013-04-04 06:26:00,
2013-04-04 02:28:00,28.7,15.8,30.24,North,9,3.0,5.0,58,0.00,,,0.00,Wunderground v.1.15,2013-04-04 06:28:00,
2013-04-04 02:29:00,28.7,15.8,30.24,NW,306,3.0,5.0,58,0.00,,,0.00,Wunderground v.1.15,2013-04-04 06:29:00,
2013-04-04 02:30:00,28.6,15.7,30.24,NE,45,2.0,2.0,58,0.00,,,0.00,Wunderground v.1.15,2013-04-04 06:30:00,
2013-04-04 02:31:00,28.7,15.8,30.24,NNE,18,3.0,5.0,58,0.00,,,0.00,Wunderground v.1.15,2013-04-04 06:31:00,
2013-04-04 02:33:00,28.6,15.7,30.24,NE,43,2.0,5.0,58,0.00,,,0.00,Wunderground v.1.15,2013-04-04 06:33:00,
2013-04-04 02:34:00,28.6,16.1,30.24,NE,46,1.0,5.0,59,0.00,,,0.00,Wunderground v.1.15,2013-04-04 06:34:00,
2013-04-04 02:35:00,28.6,16.1,30.24,NE,43,2.0,5.0,59,0.00,,,0.00,Wunderground v.1.15,2013-04-04 06:35:00,
2013-04-04 02:36:00,28.6,16.1,30.24,North,357,1.0,5.0,59,0.00,,,0.00,Wunderground v.1.15,2013-04-04 06:36:00,
2013-04-04 02:38:00,28.5,16.0,30.24,NE,40,6.0,6.0,59,0.00,,,0.00,Wunderground v.1.15,2013-04-04 06:38:00,
2013-04-04 02:39:00,28.5,16.0,30.24,NW,316,3.0,7.0,59,0.00,,,0.00,Wunderground v.1.15,2013-04-04 06:39:00,
2013-04-04 02:40:00,28.6,16.1,30.24,NE,52,7.0,7.0,59,0.00,,,0.00,Wunderground v.1.15,2013-04-04 06:40:00,
2013-04-04 02:42:00,28.6,16.1,30.24,North,10,1.0,7.0,59,0.00,,,0.00,Wunderground v.1.15,2013-04-04 06:42:00,
2013-04-04 02:43:00,28.7,16.2,30.24,WNW,302,2.0,7.0,59,0.00,,,0.00,Wunderground v.1.15,2013-04-04 06:43:00,
2013-04-04 02:44:00,28.6,16.1,30.24,NW,316,1.0,7.0,59,0.00,,,0.00,Wunderground v.1.15,2013-04-04 06:44:00,
2013-04-04 02:45:00,28.6,16.1,30.24,NE,38,0.0,7.0,59,0.00,,,0.00,Wunderground v.1.15,2013-04-04 06:45:00,
2013-04-04 02:47:00,28.6,16.1,30.24,NNW,345,2.0,7.0,59,0.00,,,0.00,Wunderground v.1.15,2013-04-04 06:47:00,
2013-04-04 02:48:00,28.6,16.1,30.24,NE,34,3.0,7.0,59,0.00,,,0.00,Wunderground v.1.15,2013-04-04 06:48:00,
2013-04-04 02:50:00,28.5,16.0,30.24,NNE,15,1.0,3.0,59,0.00,,,0.00,Wunderground v.1.15,2013-04-04 06:50:00,
2013-04-04 02:52:00,28.4,15.9,30.24,NE,43,4.0,4.0,59,0.00,,,0.00,Wunderground v.1.15,2013-04-04 06:52:00,
2013-04-04 02:53:00,28.4,15.9,30.24,ESE,108,2.0,4.0,59,0.00,,,0.00,Wunderground v.1.15,2013-04-04 06:53:00,
2013-04-04 02:55:00,28.5,16.0,30.24,ENE,75,2.0,6.0,59,0.00,,,0.00,Wunderground v.1.15,2013-04-04 06:55:00,
2013-04-04 02:57:00,28.6,16.1,30.23,NE,37,1.0,6.0,59,0.00,,,0.00,Wunderground v.1.15,2013-04-04 06:57:00,
2013-04-04 02:58:00,28.6,16.1,30.23,NW,316,2.0,6.0,59,0.00,,,0.00,Wunderground v.1.15,2013-04-04 06:58:00,
2013-04-04 03:00:00,28.5,16.0,30.23,WNW,300,3.0,5.0,59,0.00,,,0.00,Wunderground v.1.15,2013-04-04 07:00:00,
2013-04-04 03:01:00,28.5,16.0,30.23,NE,45,4.0,5.0,59,0.00,,,0.00,Wunderground v.1.15,2013-04-04 07:01:00,
2013-04-04 03:03:00,28.5,16.4,30.23,NE,50,3.0,5.0,60,0.00,,,0.00,Wunderground v.1.15,2013-04-04 07:03:00,
2013-04-04 03:06:00,28.6,16.1,30.23,ENE,68,3.0,5.0,59,0.00,,,0.00,Wunderground v.1.15,2013-04-04 07:06:00,
2013-04-04 03:08:00,28.6,16.1,30.23,NE,52,3.0,5.0,59,0.00,,,0.00,Wunderground v.1.15,2013-04-04 07:08:00,
2013-04-04 03:09:00,28.6,16.1,30.23,ENE,70,3.0,5.0,59,0.00,,,0.00,Wunderground v.1.15,2013-04-04 07:09:00,
2013-04-04 03:11:00,28.6,16.1,30.23,NE,42,1.0,3.0,59,0.00,,,0.00,Wunderground v.1.15,2013-04-04 07:11:00,
2013-04-04 03:13:00,28.6,16.1,30.23,NNE,18,2.0,3.0,59,0.00,,,0.00,Wunderground v.1.15,2013-04-04 07:13:00,
2013-04-04 03:14:00,28.6,16.1,30.23,ENE,71,0.0,3.0,59,0.00,,,0.00,Wunderground v.1.15,2013-04-04 07:14:00,
2013-04-04 03:16:00,28.5,16.0,30.23,North,360,1.0,3.0,59,0.00,,,0.00,Wunderground v.1.15,2013-04-04 07:16:00,
2013-04-04 03:19:00,28.3,16.2,30.23,NNE,12,0.0,3.0,60,0.00,,,0.00,Wunderground v.1.15,2013-04-04 07:19:00,
2013-04-04 03:20:00,28.2,16.1,30.23,North,11,0.0,1.0,60,0.00,,,0.00,Wunderground v.1.15,2013-04-04 07:20:00,
2013-04-04 03:21:00,28.1,16.0,30.23,NNE,16,0.0,1.0,60,0.00,,,0.00,Wunderground v.1.15,2013-04-04 07:21:00,
2013-04-04 03:25:00,28.0,15.9,30.23,ENE,68,1.0,1.0,60,0.00,,,0.00,Wunderground v.1.15,2013-04-04 07:25:00,
2013-04-04 03:26:00,28.0,15.9,30.24,ENE,63,0.0,2.0,60,0.00,,,0.00,Wunderground v.1.15,2013-04-04 07:26:00,
2013-04-04 03:27:00,28.0,15.9,30.24,ESE,103,1.0,2.0,60,0.00,,,0.00,Wunderground v.1.15,2013-04-04 07:27:00,
2013-04-04 03:30:00,28.0,16.3,30.23,NNE,18,4.0,4.0,61,0.00,,,0.00,Wunderground v.1.15,2013-04-04 07:30:00,
2013-04-04 03:31:00,28.1,16.4,30.23,WSW,238,0.0,4.0,61,0.00,,,0.00,Wunderground v.1.15,2013-04-04 07:31:00,
2013-04-04 03:32:00,28.1,16.4,30.23,East,83,2.0,4.0,61,0.00,,,0.00,Wunderground v.1.15,2013-04-04 07:32:00,
2013-04-04 03:35:00,28.1,16.4,30.23,ENE,65,4.0,4.0,61,0.00,,,0.00,Wunderground v.1.15,2013-04-04 07:35:00,
2013-04-04 03:37:00,28.1,16.4,30.23,NE,34,1.0,4.0,61,0.00,,,0.00,Wunderground v.1.15,2013-04-04 07:37:00,
2013-04-04 03:38:00,28.1,16.4,30.23,ENE,57,0.0,4.0,61,0.00,,,0.00,Wunderground v.1.15,2013-04-04 07:38:00,
2013-04-04 03:40:00,28.0,16.3,30.24,NE,51,0.0,1.0,61,0.00,,,0.00,Wunderground v.1.15,2013-04-04 07:40:00,
2013-04-04 03:41:00,28.0,16.3,30.24,NE,51,0.0,1.0,61,0.00,,,0.00,Wunderground v.1.15,2013-04-04 07:41:00,
2013-04-04 03:42:00,27.9,16.2,30.24,NE,51,0.0,1.0,61,0.00,,,0.00,Wunderground v.1.15,2013-04-04 07:42:00,
2013-04-04 03:43:00,27.8,16.1,30.24,NE,52,0.0,2.0,61,0.00,,,0.00,Wunderground v.1.15,2013-04-04 07:43:00,
2013-04-04 03:45:00,27.7,16.0,30.24,NE,53,0.0,2.0,61,0.00,,,0.00,Wunderground v.1.15,2013-04-04 07:45:00,
2013-04-04 03:46:00,27.6,15.9,30.24,NE,53,0.0,2.0,61,0.00,,,0.00,Wunderground v.1.15,2013-04-04 07:46:00,
2013-04-04 03:47:00,27.5,15.8,30.24,NE,52,0.0,2.0,61,0.00,,,0.00,Wunderground v.1.15,2013-04-04 07:47:00,
2013-04-04 03:48:00,27.5,15.8,30.24,NE,52,0.0,2.0,61,0.00,,,0.00,Wunderground v.1.15,2013-04-04 07:48:00,
2013-04-04 03:50:00,27.3,15.6,30.24,East,79,0.0,1.0,61,0.00,,,0.00,Wunderground v.1.15,2013-04-04 07:50:00,
2013-04-04 03:51:00,27.3,15.6,30.23,East,79,0.0,1.0,61,0.00,,,0.00,Wunderground v.1.15,2013-04-04 07:51:00,
2013-04-04 03:52:00,27.3,16.0,30.23,East,79,0.0,1.0,62,0.00,,,0.00,Wunderground v.1.15,2013-04-04 07:52:00,
2013-04-04 03:53:00,27.2,15.9,30.23,East,79,0.0,1.0,62,0.00,,,0.00,Wunderground v.1.15,2013-04-04 07:53:00,
2013-04-04 03:56:00,27.1,15.8,30.23,NE,42,0.0,1.0,62,0.00,,,0.00,Wunderground v.1.15,2013-04-04 07:56:00,
2013-04-04 03:57:00,27.1,15.8,30.23,NNE,25,0.0,1.0,62,0.00,,,0.00,Wunderground v.1.15,2013-04-04 07:57:00,
2013-04-04 03:58:00,27.1,15.8,30.23,NNE,25,0.0,1.0,62,0.00,,,0.00,Wunderground v.1.15,2013-04-04 07:58:00,
2013-04-04 04:01:00,27.0,15.7,30.23,NNE,24,0.0,0.0,62,0.00,,,0.00,Wunderground v.1.15,2013-04-04 08:01:00,
2013-04-04 04:02:00,27.0,15.7,30.23,NNE,25,0.0,0.0,62,0.00,,,0.00,Wunderground v.1.15,2013-04-04 08:02:00,
2013-04-04 04:04:00,26.9,15.6,30.23,NNE,25,1.0,1.0,62,0.00,,,0.00,Wunderground v.1.15,2013-04-04 08:04:00,
2013-04-04 04:06:00,26.6,15.7,30.23,SW,222,0.0,1.0,63,0.00,,,0.00,Wunderground v.1.15,2013-04-04 08:06:00,
2013-04-04 04:07:00,26.6,15.7,30.23,SW,222,0.0,1.0,63,0.00,,,0.00,Wunderground v.1.15,2013-04-04 08:07:00,
2013-04-04 04:08:00,26.5,15.6,30.23,SW,222,1.0,1.0,63,0.00,,,0.00,Wunderground v.1.15,2013-04-04 08:08:00,
2013-04-04 04:09:00,26.4,15.9,30.23,WSW,240,0.0,1.0,64,0.00,,,0.00,Wunderground v.1.15,2013-04-04 08:09:00,
2013-04-04 04:12:00,26.3,15.8,30.23,SSW,201,0.0,2.0,64,0.00,,,0.00,Wunderground v.1.15,2013-04-04 08:12:00,
2013-04-04 04:13:00,26.3,15.8,30.23,NE,51,0.0,2.0,64,0.00,,,0.00,Wunderground v.1.15,2013-04-04 08:13:00,
2013-04-04 04:14:00,26.3,15.8,30.23,East,80,0.0,2.0,64,0.00,,,0.00,Wunderground v.1.15,2013-04-04 08:14:00,
2013-04-04 04:17:00,26.5,16.0,30.24,NNE,22,0.0,2.0,64,0.00,,,0.00,Wunderground v.1.15,2013-04-04 08:17:00,
2013-04-04 04:18:00,26.5,16.0,30.24,NNE,22,0.0,2.0,64,0.00,,,0.00,Wunderground v.1.15,2013-04-04 08:18:00,
2013-04-04 04:19:00,26.6,16.1,30.24,NNE,22,0.0,2.0,64,0.00,,,0.00,Wunderground v.1.15,2013-04-04 08:19:00,
2013-04-04 04:22:00,26.6,16.1,30.25,NNW,331,1.0,3.0,64,0.00,,,0.00,Wunderground v.1.15,2013-04-04 08:22:00,
2013-04-04 04:23:00,26.6,16.1,30.25,NNE,20,0.0,3.0,64,0.00,,,0.00,Wunderground v.1.15,2013-04-04 08:23:00,
2013-04-04 04:25:00,26.5,16.0,30.25,North,360,0.0,3.0,64,0.00,,,0.00,Wunderground v.1.15,2013-04-04 08:25:00,
2013-04-04 04:27:00,26.4,15.9,30.25,North,359,0.0,3.0,64,0.00,,,0.00,Wunderground v.1.15,2013-04-04 08:27:00,
2013-04-04 04:28:00,26.4,15.9,30.25,North,360,0.0,3.0,64,0.00,,,0.00,Wunderground v.1.15,2013-04-04 08:28:00,
2013-04-04 04:30:00,26.2,15.7,30.25,North,4,0.0,0.0,64,0.00,,,0.00,Wunderground v.1.15,2013-04-04 08:30:00,
2013-04-04 04:32:00,26.1,15.9,30.25,NE,42,0.0,1.0,65,0.00,,,0.00,Wunderground v.1.15,2013-04-04 08:32:00,
2013-04-04 04:33:00,26.2,16.0,30.25,East,94,0.0,1.0,65,0.00,,,0.00,Wunderground v.1.15,2013-04-04 08:33:00,
2013-04-04 04:35:00,26.2,16.0,30.25,East,91,0.0,1.0,65,0.00,,,0.00,Wunderground v.1.15,2013-04-04 08:35:00,
2013-04-04 04:37:00,26.4,16.2,30.25,East,91,0.0,2.0,65,0.00,,,0.00,Wunderground v.1.15,2013-04-04 08:37:00,
2013-04-04 04:38:00,26.4,16.2,30.25,East,92,0.0,2.0,65,0.00,,,0.00,Wunderground v.1.15,2013-04-04 08:38:00,
2013-04-04 04:40:00,26.5,16.3,30.25,NE,53,0.0,1.0,65,0.00,,,0.00,Wunderground v.1.15,2013-04-04 08:40:00,
2013-04-04 04:42:00,26.7,16.5,30.25,ESE,122,1.0,4.0,65,0.00,,,0.00,Wunderground v.1.15,2013-04-04 08:42:00,
2013-04-04 04:43:00,26.7,16.5,30.25,SE,143,0.0,4.0,65,0.00,,,0.00,Wunderground v.1.15,2013-04-04 08:43:00,
2013-04-04 04:44:00,26.9,16.3,30.25,East,91,0.0,4.0,64,0.00,,,0.00,Wunderground v.1.15,2013-04-04 08:44:00,
2013-04-04 04:45:00,26.9,16.3,30.25,ENE,77,3.0,4.0,64,0.00,,,0.00,Wunderground v.1.15,2013-04-04 08:45:00,
2013-04-04 04:47:00,27.0,16.4,30.25,NE,41,1.0,4.0,64,0.00,,,0.00,Wunderground v.1.15,2013-04-04 08:47:00,
2013-04-04 04:48:00,27.0,16.4,30.25,ENE,64,2.0,4.0,64,0.00,,,0.00,Wunderground v.1.15,2013-04-04 08:48:00,
2013-04-04 04:50:00,27.0,16.4,30.26,East,79,0.0,4.0,64,0.00,,,0.00,Wunderground v.1.15,2013-04-04 08:50:00,
2013-04-04 04:52:00,27.1,16.5,30.26,SE,146,1.0,3.0,64,0.00,,,0.00,Wunderground v.1.15,2013-04-04 08:52:00,
2013-04-04 04:53:00,27.1,16.5,30.25,SE,146,0.0,3.0,64,0.00,,,0.00,Wunderground v.1.15,2013-04-04 08:53:00,
2013-04-04 04:55:00,27.2,16.6,30.26,East,81,1.0,3.0,64,0.00,,,0.00,Wunderground v.1.15,2013-04-04 08:55:00,
2013-04-04 04:58:00,27.2,16.3,30.26,NNE,20,0.0,3.0,63,0.00,,,0.00,Wunderground v.1.15,2013-04-04 08:58:00,
2013-04-04 05:00:00,27.2,16.3,30.27,ENE,78,0.0,0.0,63,0.00,,,0.00,Wunderground v.1.15,2013-04-04 09:00:00,
2013-04-04 05:03:00,27.1,16.2,30.26,ENE,77,0.0,0.0,63,0.00,,,0.00,Wunderground v.1.15,2013-04-04 09:03:00,
2013-04-04 05:05:00,26.9,16.0,30.26,ENE,77,0.0,0.0,63,0.00,,,0.00,Wunderground v.1.15,2013-04-04 09:05:00,
2013-04-04 05:06:00,26.9,16.0,30.26,ENE,78,0.0,0.0,63,0.00,,,0.00,Wunderground v.1.15,2013-04-04 09:06:00,
2013-04-04 05:08:00,26.6,16.1,30.26,ENE,77,0.0,0.0,64,0.00,,,0.00,Wunderground v.1.15,2013-04-04 09:08:00,
2013-04-04 05:10:00,26.5,16.0,30.27,ENE,77,0.0,0.0,64,0.00,,,0.00,Wunderground v.1.15,2013-04-04 09:10:00,
2013-04-04 05:12:00,26.4,15.9,30.27,ENE,77,0.0,0.0,64,0.00,,,0.00,Wunderground v.1.15,2013-04-04 09:12:00,
2013-04-04 05:13:00,26.3,16.1,30.27,ENE,65,0.0,0.0,65,0.00,,,0.00,Wunderground v.1.15,2013-04-04 09:13:00,
2013-04-04 05:14:00,26.3,16.1,30.27,ENE,57,0.0,1.0,65,0.00,,,0.00,Wunderground v.1.15,2013-04-04 09:14:00,
2013-04-04 05:15:00,26.3,16.1,30.27,ENE,57,0.0,1.0,65,0.00,,,0.00,Wunderground v.1.15,2013-04-04 09:15:00,
2013-04-04 05:17:00,26.3,16.1,30.27,ENE,59,0.0,1.0,65,0.00,,,0.00,Wunderground v.1.15,2013-04-04 09:17:00,
2013-04-04 05:18:00,26.3,16.1,30.27,NE,47,0.0,1.0,65,0.00,,,0.00,Wunderground v.1.15,2013-04-04 09:18:00,
2013-04-04 05:19:00,26.3,16.1,30.27,NE,46,0.0,1.0,65,0.00,,,0.00,Wunderground v.1.15,2013-04-04 09:19:00,
2013-04-04 05:20:00,26.3,16.1,30.27,NE,47,0.0,0.0,65,0.00,,,0.00,Wunderground v.1.15,2013-04-04 09:20:00,
2013-04-04 05:22:00,26.3,16.1,30.27,NE,52,0.0,1.0,65,0.00,,,0.00,Wunderground v.1.15,2013-04-04 09:22:00,
2013-04-04 05:23:00,26.3,16.1,30.27,ENE,63,0.0,3.0,65,0.00,,,0.00,Wunderground v.1.15,2013-04-04 09:23:00,
2013-04-04 05:25:00,26.2,16.0,30.27,East,91,1.0,3.0,65,0.00,,,0.00,Wunderground v.1.15,2013-04-04 09:25:00,
2013-04-04 05:26:00,26.2,16.0,30.27,SE,135,0.0,3.0,65,0.00,,,0.00,Wunderground v.1.15,2013-04-04 09:26:00,
2013-04-04 05:27:00,26.3,16.1,30.27,ENE,75,0.0,3.0,65,0.00,,,0.00,Wunderground v.1.15,2013-04-04 09:27:00,
2013-04-04 05:28:00,26.3,16.1,30.27,ENE,74,0.0,3.0,65,0.00,,,0.00,Wunderground v.1.15,2013-04-04 09:28:00,
2013-04-04 05:30:00,26.3,16.1,30.27,ENE,74,0.0,3.0,65,0.00,,,0.00,Wunderground v.1.15,2013-04-04 09:30:00,
2013-04-04 05:31:00,26.2,16.0,30.28,ENE,74,0.0,0.0,65,0.00,,,0.00,Wunderground v.1.15,2013-04-04 09:31:00,
2013-04-04 05:32:00,26.2,16.0,30.28,ENE,72,0.0,0.0,65,0.00,,,0.00,Wunderground v.1.15,2013-04-04 09:32:00,
2013-04-04 05:34:00,26.1,15.9,30.28,ENE,72,0.0,0.0,65,0.00,,,0.00,Wunderground v.1.15,2013-04-04 09:34:00,
2013-04-04 05:35:00,26.1,15.9,30.29,ENE,72,0.0,0.0,65,0.00,,,0.00,Wunderground v.1.15,2013-04-04 09:35:00,
2013-04-04 05:36:00,26.0,15.8,30.29,ENE,72,0.0,0.0,65,0.00,,,0.00,Wunderground v.1.15,2013-04-04 09:36:00,
2013-04-04 05:37:00,25.9,15.7,30.29,ENE,75,0.0,0.0,65,0.00,,,0.00,Wunderground v.1.15,2013-04-04 09:37:00,
2013-04-04 05:39:00,25.8,16.0,30.29,ENE,75,0.0,0.0,66,0.00,,,0.00,Wunderground v.1.15,2013-04-04 09:39:00,
2013-04-04 05:40:00,25.8,16.0,30.29,ENE,75,0.0,0.0,66,0.00,,,0.00,Wunderground v.1.15,2013-04-04 09:40:00,
2013-04-04 05:41:00,25.6,15.8,30.29,ENE,75,0.0,0.0,66,0.00,,,0.00,Wunderground v.1.15,2013-04-04 09:41:00,
2013-04-04 05:42:00,25.5,15.7,30.29,ENE,75,0.0,0.0,66,0.00,,,0.00,Wunderground v.1.15,2013-04-04 09:42:00,
2013-04-04 05:44:00,25.3,15.5,30.30,NE,50,0.0,0.0,66,0.00,,,0.00,Wunderground v.1.15,2013-04-04 09:44:00,
2013-04-04 05:45:00,25.3,15.5,30.30,North,1,0.0,0.0,66,0.00,,,0.00,Wunderground v.1.15,2013-04-04 09:45:00,
2013-04-04 05:47:00,25.2,15.8,30.30,North,1,0.0,0.0,67,0.00,,,0.00,Wunderground v.1.15,2013-04-04 09:47:00,
2013-04-04 05:48:00,25.1,15.7,30.30,North,1,0.0,0.0,67,0.00,,,0.00,Wunderground v.1.15,2013-04-04 09:48:00,
2013-04-04 05:49:00,25.0,15.6,30.30,North,1,0.0,0.0,67,0.00,,,0.00,Wunderground v.1.15,2013-04-04 09:49:00,
2013-04-04 05:50:00,24.9,15.8,30.30,North,1,0.0,0.0,68,0.00,,,0.00,Wunderground v.1.15,2013-04-04 09:50:00,
2013-04-04 05:52:00,24.8,15.7,30.30,North,1,0.0,0.0,68,0.00,,,0.00,Wunderground v.1.15,2013-04-04 09:52:00,
2013-04-04 05:54:00,24.6,15.5,30.29,North,1,0.0,0.0,68,0.00,,,0.00,Wunderground v.1.15,2013-04-04 09:54:00,
2013-04-04 05:55:00,24.6,15.5,30.29,North,1,1.0,1.0,68,0.00,,,0.00,Wunderground v.1.15,2013-04-04 09:55:00,
2013-04-04 05:57:00,24.5,15.8,30.30,North,1,0.0,1.0,69,0.00,,,0.00,Wunderground v.1.15,2013-04-04 09:57:00,
2013-04-04 05:59:00,24.3,15.6,30.29,North,360,0.0,1.0,69,0.00,,,0.00,Wunderground v.1.15,2013-04-04 09:59:00,
2013-04-04 06:00:00,24.3,15.6,30.29,North,1,0.0,0.0,69,0.00,,,0.00,Wunderground v.1.15,2013-04-04 10:00:00,
2013-04-04 06:01:00,24.2,15.5,30.29,North,360,0.0,0.0,69,0.00,,,0.00,Wunderground v.1.15,2013-04-04 10:01:00,
2013-04-04 06:02:00,24.1,15.4,30.30,North,360,0.0,0.0,69,0.00,,,0.00,Wunderground v.1.15,2013-04-04 10:02:00,
2013-04-04 06:05:00,24.0,15.6,30.30,North,360,1.0,1.0,70,0.00,,,0.00,Wunderground v.1.15,2013-04-04 10:05:00,
2013-04-04 06:06:00,23.9,15.5,30.30,North,360,1.0,1.0,70,0.00,,,0.00,Wunderground v.1.15,2013-04-04 10:06:00,
2013-04-04 06:07:00,23.8,15.4,30.30,North,360,1.0,1.0,70,0.00,,,0.00,Wunderground v.1.15,2013-04-04 10:07:00,
2013-04-04 06:10:00,23.6,15.6,30.30,SW,215,0.0,0.0,71,0.00,,,0.00,Wunderground v.1.15,2013-04-04 10:10:00,
2013-04-04 06:12:00,23.6,15.6,30.31,WSW,238,0.0,0.0,71,0.00,,,0.00,Wunderground v.1.15,2013-04-04 10:12:00,
2013-04-04 06:15:00,23.6,15.6,30.31,WSW,255,0.0,1.0,71,0.00,,,0.00,Wunderground v.1.15,2013-04-04 10:15:00,
2013-04-04 06:17:00,23.7,15.7,30.31,WSW,240,0.0,1.0,71,0.00,,,0.00,Wunderground v.1.15,2013-04-04 10:17:00,
2013-04-04 06:20:00,23.9,15.9,30.31,SSW,198,1.0,1.0,71,0.00,,,0.00,Wunderground v.1.15,2013-04-04 10:20:00,
2013-04-04 06:21:00,23.9,15.9,30.31,SSW,200,0.0,1.0,71,0.00,,,0.00,Wunderground v.1.15,2013-04-04 10:21:00,
2013-04-04 06:23:00,23.9,15.9,30.31,West,260,0.0,1.0,71,0.00,,,0.00,Wunderground v.1.15,2013-04-04 10:23:00,
2013-04-04 06:25:00,23.9,15.9,30.31,WNW,300,0.0,1.0,71,0.00,,,0.00,Wunderground v.1.15,2013-04-04 10:25:00,
2013-04-04 06:26:00,23.9,15.9,30.31,WNW,299,0.0,1.0,71,0.00,,,0.00,Wunderground v.1.15,2013-04-04 10:26:00,
2013-04-04 06:28:00,24.0,16.0,30.31,West,277,0.0,1.0,71,0.00,,,0.00,Wunderground v.1.15,2013-04-04 10:28:00,
2013-04-04 06:31:00,24.2,16.1,30.31,West,277,0.0,0.0,71,0.00,,,0.00,Wunderground v.1.15,2013-04-04 10:31:00,
2013-04-04 06:32:00,24.2,16.1,30.31,West,277,0.0,0.0,71,0.00,,,0.00,Wunderground v.1.15,2013-04-04 10:32:00,
2013-04-04 06:33:00,24.2,16.1,30.31,West,277,0.0,0.0,71,0.00,,,0.00,Wunderground v.1.15,2013-04-04 10:33:00,
2013-04-04 06:37:00,24.2,16.1,30.32,West,275,0.0,1.0,71,0.00,,,0.00,Wunderground v.1.15,2013-04-04 10:37:00,
2013-04-04 06:39:00,24.3,16.2,30.32,West,276,0.0,1.0,71,0.00,,,0.00,Wunderground v.1.15,2013-04-04 10:39:00,
2013-04-04 06:40:00,24.3,15.9,30.32,West,276,0.0,1.0,70,0.00,,,0.00,Wunderground v.1.15,2013-04-04 10:40:00,
2013-04-04 06:42:00,24.2,15.8,30.32,NNW,336,0.0,1.0,70,0.00,,,0.00,Wunderground v.1.15,2013-04-04 10:42:00,
2013-04-04 06:43:00,24.2,15.8,30.32,NNW,336,0.0,1.0,70,0.00,,,0.00,Wunderground v.1.15,2013-04-04 10:43:00,
2013-04-04 06:45:00,24.2,16.1,30.32,SSW,194,0.0,1.0,71,0.00,,,0.00,Wunderground v.1.15,2013-04-04 10:45:00,
2013-04-04 06:47:00,24.2,16.1,30.32,North,4,1.0,1.0,71,0.00,,,0.00,Wunderground v.1.15,2013-04-04 10:47:00,
2013-04-04 06:48:00,24.2,16.1,30.32,North,3,1.0,1.0,71,0.00,,,0.00,Wunderground v.1.15,2013-04-04 10:48:00,
2013-04-04 06:50:00,24.3,16.2,30.32,North,3,0.0,0.0,71,0.00,,,0.00,Wunderground v.1.15,2013-04-04 10:50:00,
2013-04-04 06:53:00,24.4,16.3,30.32,North,5,0.0,0.0,71,0.00,,,0.00,Wunderground v.1.15,2013-04-04 10:53:00,
2013-04-04 06:55:00,24.4,16.3,30.32,East,97,0.0,1.0,71,0.00,,,0.00,Wunderground v.1.15,2013-04-04 10:55:00,
2013-04-04 06:58:00,24.6,16.5,30.32,East,79,0.0,1.0,71,0.00,,,0.00,Wunderground v.1.15,2013-04-04 10:58:00,
2013-04-04 07:00:00,24.9,16.8,30.32,NNW,328,1.0,1.0,71,0.00,,,0.00,Wunderground v.1.15,2013-04-04 11:00:00,
2013-04-04 07:01:00,24.9,16.8,30.32,NW,304,1.0,1.0,71,0.00,,,0.00,Wunderground v.1.15,2013-04-04 11:01:00,
2013-04-04 07:03:00,25.1,16.7,30.32,NNW,337,0.0,2.0,70,0.00,,,0.00,Wunderground v.1.15,2013-04-04 11:03:00,
2013-04-04 07:05:00,25.4,17.0,30.32,WNW,301,0.0,2.0,70,0.00,,,0.00,Wunderground v.1.15,2013-04-04 11:05:00,
2013-04-04 07:06:00,25.4,17.0,30.32,NW,312,1.0,2.0,70,0.00,,,0.00,Wunderground v.1.15,2013-04-04 11:06:00,
2013-04-04 07:08:00,25.6,16.8,30.32,NW,314,0.0,2.0,69,0.00,,,0.00,Wunderground v.1.15,2013-04-04 11:08:00,
2013-04-04 07:09:00,25.7,16.9,30.32,North,1,3.0,3.0,69,0.00,,,0.00,Wunderground v.1.15,2013-04-04 11:09:00,
2013-04-04 07:12:00,25.8,17.0,30.33,NNW,338,0.0,2.0,69,0.00,,,0.00,Wunderground v.1.15,2013-04-04 11:12:00,
2013-04-04 07:13:00,25.9,17.1,30.32,North,350,0.0,2.0,69,0.00,,,0.00,Wunderground v.1.15,2013-04-04 11:13:00,
2013-04-04 07:14:00,26.0,17.2,30.33,North,349,2.0,2.0,69,0.00,,,0.00,Wunderground v.1.15,2013-04-04 11:14:00,
2013-04-04 07:17:00,26.2,17.4,30.33,NW,314,2.0,5.0,69,0.00,,,0.00,Wunderground v.1.15,2013-04-04 11:17:00,
2013-04-04 07:18:00,26.3,17.2,30.33,ENE,74,1.0,5.0,68,0.00,,,0.00,Wunderground v.1.15,2013-04-04 11:18:00,
2013-04-04 07:20:00,26.5,17.4,30.33,North,349,2.0,5.0,68,0.00,,,0.00,Wunderground v.1.15,2013-04-04 11:20:00,
2013-04-04 07:22:00,26.6,17.5,30.33,North,4,0.0,4.0,68,0.00,,,0.00,Wunderground v.1.15,2013-04-04 11:22:00,
2013-04-04 07:23:00,26.7,17.6,30.33,North,357,0.0,4.0,68,0.00,,,0.00,Wunderground v.1.15,2013-04-04 11:23:00,
2013-04-04 07:25:00,26.8,17.3,30.33,NNW,345,2.0,4.0,67,0.00,,,0.00,Wunderground v.1.15,2013-04-04 11:25:00,
2013-04-04 07:27:00,27.0,17.5,30.33,North,353,0.0,5.0,67,0.00,,,0.00,Wunderground v.1.15,2013-04-04 11:27:00,
2013-04-04 07:28:00,27.1,17.6,30.33,NNW,340,2.0,5.0,67,0.00,,,0.00,Wunderground v.1.15,2013-04-04 11:28:00,
2013-04-04 07:30:00,27.2,17.7,30.33,North,3,3.0,3.0,67,0.00,,,0.00,Wunderground v.1.15,2013-04-04 11:30:00,
2013-04-04 07:32:00,27.4,17.9,30.33,NNW,330,4.0,7.0,67,0.00,,,0.00,Wunderground v.1.15,2013-04-04 11:32:00,
2013-04-04 07:34:00,27.5,17.6,30.34,NNW,332,4.0,7.0,66,0.00,,,0.00,Wunderground v.1.15,2013-04-04 11:34:00,
2013-04-04 07:35:00,27.6,17.7,30.34,North,1,3.0,7.0,66,0.00,,,0.00,Wunderground v.1.15,2013-04-04 11:35:00,
2013-04-04 07:37:00,27.8,17.9,30.34,NW,316,3.0,7.0,66,0.00,,,0.00,Wunderground v.1.15,2013-04-04 11:37:00,
2013-04-04 07:39:00,27.8,17.9,30.34,North,352,2.0,7.0,66,0.00,,,0.00,Wunderground v.1.15,2013-04-04 11:39:00,
2013-04-04 07:40:00,27.9,18.0,30.34,NNW,345,5.0,7.0,66,0.00,,,0.00,Wunderground v.1.15,2013-04-04 11:40:00,
2013-04-04 07:43:00,28.0,18.1,30.34,North,354,7.0,7.0,66,0.00,,,0.00,Wunderground v.1.15,2013-04-04 11:43:00,
2013-04-04 07:44:00,28.1,17.8,30.34,NNW,343,4.0,7.0,65,0.00,,,0.00,Wunderground v.1.15,2013-04-04 11:44:00,
2013-04-04 07:45:00,28.2,17.9,30.34,North,3,7.0,7.0,65,0.00,,,0.00,Wunderground v.1.15,2013-04-04 11:45:00,
2013-04-04 07:48:00,28.4,18.1,30.34,NNW,330,5.0,8.0,65,0.00,,,0.00,Wunderground v.1.15,2013-04-04 11:48:00,
2013-04-04 07:50:00,28.6,18.3,30.34,North,350,3.0,5.0,65,0.00,,,0.00,Wunderground v.1.15,2013-04-04 11:50:00,
2013-04-04 07:51:00,28.6,18.3,30.34,NW,326,3.0,5.0,65,0.00,,,0.00,Wunderground v.1.15,2013-04-04 11:51:00,
2013-04-04 07:53:00,28.8,18.5,30.34,NNW,342,5.0,5.0,65,0.00,,,0.00,Wunderground v.1.15,2013-04-04 11:53:00,
2013-04-04 07:56:00,28.9,18.6,30.34,NW,314,4.0,6.0,65,0.00,,,0.00,Wunderground v.1.15,2013-04-04 11:56:00,
2013-04-04 07:59:00,29.1,18.4,30.34,North,8,5.0,9.0,64,0.00,,,0.00,Wunderground v.1.15,2013-04-04 11:59:00,
2013-04-04 08:01:00,29.2,18.5,30.34,NW,315,2.0,4.0,64,0.00,,,0.00,Wunderground v.1.15,2013-04-04 12:01:00,
2013-04-04 08:02:00,29.3,18.3,30.34,NNW,331,3.0,4.0,63,0.00,,,0.00,Wunderground v.1.15,2013-04-04 12:02:00,
2013-04-04 08:04:00,29.4,18.7,30.34,NNW,342,8.0,8.0,64,0.00,,,0.00,Wunderground v.1.15,2013-04-04 12:04:00,
2013-04-04 08:07:00,29.4,18.3,30.35,NNW,337,0.0,8.0,63,0.00,,,0.00,Wunderground v.1.15,2013-04-04 12:07:00,
2013-04-04 08:09:00,29.6,18.5,30.35,NNW,343,4.0,8.0,63,0.00,,,0.00,Wunderground v.1.15,2013-04-04 12:09:00,
2013-04-04 08:12:00,29.7,18.6,30.35,NW,314,2.0,5.0,63,0.00,,,0.00,Wunderground v.1.15,2013-04-04 12:12:00,
2013-04-04 08:14:00,29.8,18.7,30.35,NW,314,3.0,5.0,63,0.00,,,0.00,Wunderground v.1.15,2013-04-04 12:14:00,
2013-04-04 08:15:00,29.9,18.8,30.35,North,360,6.0,6.0,63,0.00,,,0.00,Wunderground v.1.15,2013-04-04 12:15:00,
2013-04-04 08:17:00,30.1,19.0,30.35,NNE,13,5.0,6.0,63,0.00,,,0.00,Wunderground v.1.15,2013-04-04 12:17:00,
2013-04-04 08:20:00,30.3,19.2,30.35,NNW,338,4.0,5.0,63,0.00,,,0.00,Wunderground v.1.15,2013-04-04 12:20:00,
2013-04-04 08:22:00,30.5,19.0,30.36,NNW,345,3.0,5.0,62,0.00,,,0.00,Wunderground v.1.15,2013-04-04 12:22:00,
2013-04-04 08:25:00,30.7,19.2,30.36,NNW,342,2.0,5.0,62,0.00,,,0.00,Wunderground v.1.15,2013-04-04 12:25:00,
2013-04-04 08:27:00,30.8,18.9,30.35,North,354,4.0,5.0,61,0.00,,,0.00,Wunderground v.1.15,2013-04-04 12:27:00,
2013-04-04 08:30:00,31.0,18.7,30.35,NNW,338,2.0,5.0,60,0.00,,,0.00,Wunderground v.1.15,2013-04-04 12:30:00,
2013-04-04 08:31:00,31.0,18.7,30.35,North,9,3.0,5.0,60,0.00,,,0.00,Wunderground v.1.15,2013-04-04 12:31:00,
2013-04-04 08:33:00,31.1,18.8,30.35,WNW,301,1.0,7.0,60,0.00,,,0.00,Wunderground v.1.15,2013-04-04 12:33:00,
2013-04-04 08:36:00,31.2,18.5,30.35,NNE,23,3.0,7.0,59,0.00,,,0.00,Wunderground v.1.15,2013-04-04 12:36:00,
2013-04-04 08:38:00,31.4,18.7,30.35,North,350,6.0,7.0,59,0.00,,,0.00,Wunderground v.1.15,2013-04-04 12:38:00,
2013-04-04 08:39:00,31.4,18.7,30.35,North,349,4.0,7.0,59,0.00,,,0.00,Wunderground v.1.15,2013-04-04 12:39:00,
2013-04-04 08:42:00,31.7,19.0,30.35,NNW,342,3.0,6.0,59,0.00,,,0.00,Wunderground v.1.15,2013-04-04 12:42:00,
2013-04-04 08:43:00,31.8,19.1,30.35,North,352,2.0,6.0,59,0.00,,,0.00,Wunderground v.1.15,2013-04-04 12:43:00,
2013-04-04 08:44:00,31.8,19.1,30.35,North,352,3.0,6.0,59,0.00,,,0.00,Wunderground v.1.15,2013-04-04 12:44:00,
2013-04-04 08:47:00,32.2,19.1,30.35,NNW,336,1.0,6.0,58,0.00,,,0.00,Wunderground v.1.15,2013-04-04 12:47:00,
2013-04-04 08:48:00,32.2,19.1,30.35,NNW,331,3.0,6.0,58,0.00,,,0.00,Wunderground v.1.15,2013-04-04 12:48:00,
2013-04-04 08:49:00,32.3,18.8,30.35,NE,43,3.0,6.0,57,0.00,,,0.00,Wunderground v.1.15,2013-04-04 12:49:00,
2013-04-04 08:50:00,32.4,19.3,30.35,ENE,70,4.0,4.0,58,0.00,,,0.00,Wunderground v.1.15,2013-04-04 12:50:00,
2013-04-04 08:53:00,32.6,18.6,30.35,NE,52,2.0,4.0,56,0.00,,,0.00,Wunderground v.1.15,2013-04-04 12:53:00,
2013-04-04 08:55:00,32.8,18.8,30.35,North,359,2.0,5.0,56,0.00,,,0.00,Wunderground v.1.15,2013-04-04 12:55:00,
2013-04-04 08:56:00,32.9,19.7,30.35,NE,51,2.0,5.0,58,0.00,,,0.00,Wunderground v.1.15,2013-04-04 12:56:00,
2013-04-04 08:58:00,33.2,18.3,30.34,NE,53,4.0,5.0,54,0.00,,,0.00,Wunderground v.1.15,2013-04-04 12:58:00,
2013-04-04 09:00:00,33.4,18.5,30.34,North,353,12.0,12.0,54,0.00,,,0.00,Wunderground v.1.15,2013-04-04 13:00:00,
2013-04-04 09:01:00,33.5,18.2,30.34,NNW,343,4.0,12.0,53,0.00,,,0.00,Wunderground v.1.15,2013-04-04 13:01:00,
2013-04-04 09:03:00,33.5,18.6,30.34,NW,323,3.0,12.0,54,0.00,,,0.00,Wunderground v.1.15,2013-04-04 13:03:00,
2013-04-04 09:04:00,33.6,18.3,30.34,North,9,7.0,12.0,53,0.00,,,0.00,Wunderground v.1.15,2013-04-04 13:04:00,
2013-04-04 09:05:00,33.7,18.4,30.34,NNW,348,5.0,12.0,53,0.00,,,0.00,Wunderground v.1.15,2013-04-04 13:05:00,
2013-04-04 09:07:00,33.8,18.9,30.34,NNW,340,3.0,12.0,54,0.00,,,0.00,Wunderground v.1.15,2013-04-04 13:07:00,
2013-04-04 09:08:00,33.9,18.6,30.34,NE,38,3.0,12.0,53,0.00,,,0.00,Wunderground v.1.15,2013-04-04 13:08:00,
2013-04-04 09:09:00,34.1,18.7,30.34,North,349,6.0,12.0,53,0.00,,,0.00,Wunderground v.1.15,2013-04-04 13:09:00,
2013-04-04 09:10:00,34.3,18.5,30.34,ENE,74,7.0,7.0,52,0.00,,,0.00,Wunderground v.1.15,2013-04-04 13:10:00,
2013-04-04 09:12:00,34.4,17.7,30.34,NE,53,2.0,7.0,50,0.00,,,0.00,Wunderground v.1.15,2013-04-04 13:12:00,
2013-04-04 09:13:00,34.5,17.8,30.34,ENE,58,4.0,7.0,50,0.00,,,0.00,Wunderground v.1.15,2013-04-04 13:13:00,
2013-04-04 09:14:00,34.5,17.8,30.34,NE,43,2.0,7.0,50,0.00,,,0.00,Wunderground v.1.15,2013-04-04 13:14:00,
2013-04-04 09:15:00,34.6,17.8,30.34,NNE,13,5.0,7.0,50,0.00,,,0.00,Wunderground v.1.15,2013-04-04 13:15:00,
2013-04-04 09:17:00,34.7,17.9,30.34,NNW,341,6.0,7.0,50,0.00,,,0.00,Wunderground v.1.15,2013-04-04 13:17:00,
2013-04-04 09:18:00,34.8,17.6,30.34,NW,311,3.0,8.0,49,0.00,,,0.00,Wunderground v.1.15,2013-04-04 13:18:00,
2013-04-04 09:20:00,34.9,17.7,30.34,NNW,341,7.0,7.0,49,0.00,,,0.00,Wunderground v.1.15,2013-04-04 13:20:00,
2013-04-04 09:21:00,35.0,17.3,30.34,NNW,344,5.0,9.0,48,0.00,,,0.00,Wunderground v.1.15,2013-04-04 13:21:00,
2013-04-04 09:22:00,35.1,17.4,30.34,NNW,343,3.0,10.0,48,0.00,,,0.00,Wunderground v.1.15,2013-04-04 13:22:00,
2013-04-04 09:23:00,35.1,17.4,30.34,NNE,33,1.0,10.0,48,0.00,,,0.00,Wunderground v.1.15,2013-04-04 13:23:00,
2013-04-04 09:25:00,35.3,17.1,30.34,NNW,346,1.0,10.0,47,0.00,,,0.00,Wunderground v.1.15,2013-04-04 13:25:00,
2013-04-04 09:26:00,35.3,17.5,30.34,ENE,75,1.0,10.0,48,0.00,,,0.00,Wunderground v.1.15,2013-04-04 13:26:00,
2013-04-04 09:27:00,35.5,17.7,30.34,NNE,28,5.0,10.0,48,0.00,,,0.00,Wunderground v.1.15,2013-04-04 13:27:00,
2013-04-04 09:29:00,35.8,17.5,30.34,ESE,104,2.0,10.0,47,0.00,,,0.00,Wunderground v.1.15,2013-04-04 13:29:00,
2013-04-04 09:30:00,35.9,17.6,30.34,ENE,62,1.0,3.0,47,0.00,,,0.00,Wunderground v.1.15,2013-04-04 13:30:00,
2013-04-04 09:32:00,36.1,17.3,30.33,NNW,339,3.0,5.0,46,0.00,,,0.00,Wunderground v.1.15,2013-04-04 13:32:00,
2013-04-04 09:33:00,36.1,17.3,30.33,NNE,15,4.0,5.0,46,0.00,,,0.00,Wunderground v.1.15,2013-04-04 13:33:00,
2013-04-04 09:34:00,36.3,18.0,30.34,NNW,345,0.0,5.0,47,0.00,,,0.00,Wunderground v.1.15,2013-04-04 13:34:00,
2013-04-04 09:35:00,36.3,18.0,30.34,NW,311,0.0,5.0,47,0.00,,,0.00,Wunderground v.1.15,2013-04-04 13:35:00,
2013-04-04 09:38:00,36.6,16.7,30.34,North,359,3.0,7.0,44,0.00,,,0.00,Wunderground v.1.15,2013-04-04 13:38:00,
2013-04-04 09:39:00,36.8,17.4,30.34,NE,49,2.0,7.0,45,0.00,,,0.00,Wunderground v.1.15,2013-04-04 13:39:00,
2013-04-04 09:40:00,36.8,17.4,30.34,ENE,75,2.0,3.0,45,0.00,,,0.00,Wunderground v.1.15,2013-04-04 13:40:00,
2013-04-04 09:43:00,37.3,16.8,30.33,ENE,64,0.0,5.0,43,0.00,,,0.00,Wunderground v.1.15,2013-04-04 13:43:00,
2013-04-04 09:44:00,37.4,17.4,30.33,NE,34,2.0,6.0,44,0.00,,,0.00,Wunderground v.1.15,2013-04-04 13:44:00,
2013-04-04 09:45:00,37.5,16.5,30.33,ENE,65,2.0,6.0,42,0.00,,,0.00,Wunderground v.1.15,2013-04-04 13:45:00,
2013-04-04 09:48:00,37.8,16.2,30.33,North,352,3.0,6.0,41,0.00,,,0.00,Wunderground v.1.15,2013-04-04 13:48:00,
2013-04-04 09:49:00,37.9,15.7,30.33,NNW,336,2.0,6.0,40,0.00,,,0.00,Wunderground v.1.15,2013-04-04 13:49:00,
2013-04-04 09:50:00,37.9,16.3,30.33,North,352,4.0,4.0,41,0.00,,,0.00,Wunderground v.1.15,2013-04-04 13:50:00,
2013-04-04 09:53:00,38.2,17.1,30.33,NNW,344,4.0,4.0,42,0.00,,,0.00,Wunderground v.1.15,2013-04-04 13:53:00,
2013-04-04 09:55:00,38.3,16.6,30.33,NE,53,4.0,7.0,41,0.00,,,0.00,Wunderground v.1.15,2013-04-04 13:55:00,
2013-04-04 09:56:00,38.3,15.5,30.33,NNW,337,1.0,7.0,39,0.00,,,0.00,Wunderground v.1.15,2013-04-04 13:56:00,
2013-04-04 09:58:00,38.5,16.2,30.33,NE,45,4.0,7.0,40,0.00,,,0.00,Wunderground v.1.15,2013-04-04 13:58:00,
2013-04-04 10:00:00,38.6,15.7,30.33,NE,41,5.0,5.0,39,0.00,,,0.00,Wunderground v.1.15,2013-04-04 14:00:00,
2013-04-04 10:01:00,38.6,15.7,30.33,North,359,4.0,6.0,39,0.00,,,0.00,Wunderground v.1.15,2013-04-04 14:01:00,
2013-04-04 10:04:00,38.9,15.4,30.33,NE,34,2.0,6.0,38,0.00,,,0.00,Wunderground v.1.15,2013-04-04 14:04:00,
2013-04-04 10:05:00,38.9,16.0,30.33,ENE,61,6.0,6.0,39,0.00,,,0.00,Wunderground v.1.15,2013-04-04 14:05:00,
2013-04-04 10:08:00,39.2,15.1,30.32,NNW,335,8.0,8.0,37,0.00,,,0.00,Wunderground v.1.15,2013-04-04 14:08:00,
2013-04-04 10:09:00,39.2,13.8,30.32,North,1,4.0,10.0,35,0.00,,,0.00,Wunderground v.1.15,2013-04-04 14:09:00,
2013-04-04 10:11:00,39.3,13.9,30.32,North,356,5.0,6.0,35,0.00,,,0.00,Wunderground v.1.15,2013-04-04 14:11:00,
2013-04-04 10:12:00,39.4,14.6,30.32,NNE,15,1.0,7.0,36,0.00,,,0.00,Wunderground v.1.15,2013-04-04 14:12:00,
2013-04-04 10:13:00,39.5,14.7,30.32,NNW,348,10.0,10.0,36,0.00,,,0.00,Wunderground v.1.15,2013-04-04 14:13:00,
2013-04-04 10:14:00,39.5,13.4,30.32,NW,319,8.0,10.0,34,0.00,,,0.00,Wunderground v.1.15,2013-04-04 14:14:00,
2013-04-04 10:16:00,39.6,14.2,30.31,NNW,343,8.0,10.0,35,0.00,,,0.00,Wunderground v.1.15,2013-04-04 14:16:00,
2013-04-04 10:17:00,39.6,12.8,30.31,NNW,328,6.0,10.0,33,0.00,,,0.00,Wunderground v.1.15,2013-04-04 14:17:00,
2013-04-04 10:18:00,39.6,13.5,30.31,NNE,16,2.0,10.0,34,0.00,,,0.00,Wunderground v.1.15,2013-04-04 14:18:00,
2013-04-04 10:20:00,39.8,13.7,30.31,WSW,255,1.0,10.0,34,0.00,,,0.00,Wunderground v.1.15,2013-04-04 14:20:00,
2013-04-04 10:21:00,39.9,13.8,30.31,NE,39,3.0,5.0,34,0.00,,,0.00,Wunderground v.1.15,2013-04-04 14:21:00,
2013-04-04 10:22:00,40.0,13.8,30.31,NW,323,2.0,5.0,34,0.00,,,0.00,Wunderground v.1.15,2013-04-04 14:22:00,
2013-04-04 10:24:00,40.1,13.3,30.31,NNW,348,4.0,8.0,33,0.00,,,0.00,Wunderground v.1.15,2013-04-04 14:24:00,
2013-04-04 10:25:00,40.1,13.3,30.31,NE,47,5.0,8.0,33,0.00,,,0.00,Wunderground v.1.15,2013-04-04 14:25:00,
2013-04-04 10:27:00,40.1,11.8,30.31,NNW,344,4.0,8.0,31,0.00,,,0.00,Wunderground v.1.15,2013-04-04 14:27:00,
2013-04-04 10:30:00,40.1,13.9,30.31,East,87,2.0,8.0,34,0.00,,,0.00,Wunderground v.1.15,2013-04-04 14:30:00,
2013-04-04 10:32:00,40.4,12.1,30.31,NE,43,2.0,5.0,31,0.00,,,0.00,Wunderground v.1.15,2013-04-04 14:32:00,
2013-04-04 10:35:00,40.5,12.9,30.31,ENE,67,2.0,6.0,32,0.00,,,0.00,Wunderground v.1.15,2013-04-04 14:35:00,
2013-04-04 10:37:00,40.7,13.1,30.31,NE,39,5.0,6.0,32,0.00,,,0.00,Wunderground v.1.15,2013-04-04 14:37:00,
2013-04-04 10:38:00,40.7,12.4,30.31,NNE,28,4.0,6.0,31,0.00,,,0.00,Wunderground v.1.15,2013-04-04 14:38:00,
2013-04-04 10:40:00,40.8,11.7,30.31,NNE,28,4.0,7.0,30,0.00,,,0.00,Wunderground v.1.15,2013-04-04 14:40:00,
2013-04-04 10:42:00,40.9,11.0,30.31,NE,46,4.0,7.0,29,0.00,,,0.00,Wunderground v.1.15,2013-04-04 14:42:00,
2013-04-04 10:43:00,40.9,11.8,30.31,ENE,57,5.0,7.0,30,0.00,,,0.00,Wunderground v.1.15,2013-04-04 14:43:00,
2013-04-04 10:45:00,41.1,12.7,30.31,NE,35,2.0,7.0,31,0.00,,,0.00,Wunderground v.1.15,2013-04-04 14:45:00,
2013-04-04 10:46:00,41.1,12.7,30.30,NNE,26,3.0,7.0,31,0.00,,,0.00,Wunderground v.1.15,2013-04-04 14:46:00,
2013-04-04 10:48:00,41.4,13.0,30.30,NE,53,4.0,7.0,31,0.00,,,0.00,Wunderground v.1.15,2013-04-04 14:48:00,
2013-04-04 10:50:00,41.7,12.5,30.30,West,271,2.0,5.0,30,0.00,,,0.00,Wunderground v.1.15,2013-04-04 14:50:00,
2013-04-04 10:51:00,41.7,12.5,30.30,NE,46,3.0,5.0,30,0.00,,,0.00,Wunderground v.1.15,2013-04-04 14:51:00,
2013-04-04 10:53:00,42.0,12.8,30.30,North,352,5.0,8.0,30,0.00,,,0.00,Wunderground v.1.15,2013-04-04 14:53:00,
2013-04-04 10:56:00,42.2,13.7,30.30,North,359,3.0,9.0,31,0.00,,,0.00,Wunderground v.1.15,2013-04-04 14:56:00,
2013-04-04 10:58:00,42.2,13.7,30.30,NW,306,2.0,9.0,31,0.00,,,0.00,Wunderground v.1.15,2013-04-04 14:58:00,
2013-04-04 11:01:00,42.5,13.9,30.31,North,9,2.0,4.0,31,0.00,,,0.00,Wunderground v.1.15,2013-04-04 15:01:00,
2013-04-04 11:03:00,42.6,13.3,30.31,ESE,119,0.0,4.0,30,0.00,,,0.00,Wunderground v.1.15,2013-04-04 15:03:00,
2013-04-04 11:06:00,42.5,13.9,30.30,NNE,25,2.0,7.0,31,0.00,,,0.00,Wunderground v.1.15,2013-04-04 15:06:00,
2013-04-04 11:09:00,42.5,12.4,30.30,WSW,240,0.0,7.0,29,0.00,,,0.00,Wunderground v.1.15,2013-04-04 15:09:00,
2013-04-04 11:11:00,42.6,13.3,30.30,NW,307,1.0,9.0,30,0.00,,,0.00,Wunderground v.1.15,2013-04-04 15:11:00,
2013-04-04 11:12:00,42.6,14.0,30.30,NNW,343,4.0,9.0,31,0.00,,,0.00,Wunderground v.1.15,2013-04-04 15:12:00,
2013-04-04 11:15:00,42.9,14.3,30.30,WNW,300,1.0,9.0,31,0.00,,,0.00,Wunderground v.1.15,2013-04-04 15:15:00,
2013-04-04 11:16:00,43.1,13.7,30.30,NNW,340,4.0,9.0,30,0.00,,,0.00,Wunderground v.1.15,2013-04-04 15:16:00,
2013-04-04 11:18:00,43.4,16.9,30.30,North,354,3.0,9.0,34,0.00,,,0.00,Wunderground v.1.15,2013-04-04 15:18:00,
2013-04-04 11:20:00,43.8,16.5,30.30,WSW,248,1.0,3.0,33,0.00,,,0.00,Wunderground v.1.15,2013-04-04 15:20:00,
2013-04-04 11:22:00,44.2,15.4,30.30,NW,311,3.0,4.0,31,0.00,,,0.00,Wunderground v.1.15,2013-04-04 15:22:00,
2013-04-04 11:23:00,44.3,14.8,30.30,NW,308,2.0,4.0,30,0.00,,,0.00,Wunderground v.1.15,2013-04-04 15:23:00,
2013-04-04 11:25:00,44.5,15.7,30.30,SSW,204,2.0,4.0,31,0.00,,,0.00,Wunderground v.1.15,2013-04-04 15:25:00,
2013-04-04 11:26:00,44.5,15.7,30.30,East,86,2.0,4.0,31,0.00,,,0.00,Wunderground v.1.15,2013-04-04 15:26:00,
2013-04-04 11:27:00,44.7,15.9,30.30,NNE,29,4.0,4.0,31,0.00,,,0.00,Wunderground v.1.15,2013-04-04 15:27:00,
2013-04-04 11:30:00,45.0,16.1,30.30,West,273,2.0,3.0,31,0.00,,,0.00,Wunderground v.1.15,2013-04-04 15:30:00,
2013-04-04 11:31:00,45.1,15.5,30.30,NW,321,1.0,3.0,30,0.00,,,0.00,Wunderground v.1.15,2013-04-04 15:31:00,
2013-04-04 11:32:00,45.3,15.6,30.30,North,359,9.0,9.0,30,0.00,,,0.00,Wunderground v.1.15,2013-04-04 15:32:00,
2013-04-04 11:35:00,44.9,14.5,30.30,North,9,4.0,10.0,29,0.00,,,0.00,Wunderground v.1.15,2013-04-04 15:35:00,
2013-04-04 11:36:00,44.7,14.3,30.30,NNW,335,5.0,10.0,29,0.00,,,0.00,Wunderground v.1.15,2013-04-04 15:36:00,
2013-04-04 11:37:00,44.5,14.2,30.30,NNW,337,3.0,10.0,29,0.00,,,0.00,Wunderground v.1.15,2013-04-04 15:37:00,
2013-04-04 11:40:00,44.6,15.0,30.30,WSW,245,1.0,4.0,30,0.00,,,0.00,Wunderground v.1.15,2013-04-04 15:40:00,
2013-04-04 11:41:00,44.7,14.3,30.29,West,266,1.0,4.0,29,0.00,,,0.00,Wunderground v.1.15,2013-04-04 15:41:00,
2013-04-04 11:42:00,44.7,15.1,30.29,West,268,0.0,4.0,30,0.00,,,0.00,Wunderground v.1.15,2013-04-04 15:42:00,
2013-04-04 11:45:00,45.0,15.4,30.29,WNW,300,3.0,5.0,30,0.00,,,0.00,Wunderground v.1.15,2013-04-04 15:45:00,
2013-04-04 11:47:00,44.9,14.5,30.29,North,9,4.0,6.0,29,0.00,,,0.00,Wunderground v.1.15,2013-04-04 15:47:00,
2013-04-04 11:50:00,44.7,14.3,30.29,North,350,1.0,2.0,29,0.00,,,0.00,Wunderground v.1.15,2013-04-04 15:50:00,
2013-04-04 11:51:00,44.7,14.3,30.29,North,354,1.0,2.0,29,0.00,,,0.00,Wunderground v.1.15,2013-04-04 15:51:00,
2013-04-04 11:52:00,44.7,15.1,30.29,North,360,2.0,3.0,30,0.00,,,0.00,Wunderground v.1.15,2013-04-04 15:52:00,
2013-04-04 11:56:00,45.0,16.9,30.29,North,4,5.0,5.0,32,0.00,,,0.00,Wunderground v.1.15,2013-04-04 15:56:00,
2013-04-04 11:57:00,45.3,17.8,30.29,NNW,344,7.0,7.0,33,0.00,,,0.00,Wunderground v.1.15,2013-04-04 15:57:00,
2013-04-04 11:58:00,45.3,17.8,30.29,NNW,342,6.0,7.0,33,0.00,,,0.00,Wunderground v.1.15,2013-04-04 15:58:00,
2013-04-04 12:01:00,44.9,15.3,30.29,NNW,345,1.0,5.0,30,0.00,,,0.00,Wunderground v.1.15,2013-04-04 16:01:00,
2013-04-04 12:02:00,44.9,16.0,30.29,North,360,2.0,5.0,31,0.00,,,0.00,Wunderground v.1.15,2013-04-04 16:02:00,
2013-04-04 12:03:00,44.9,16.0,30.29,NNW,340,1.0,5.0,31,0.00,,,0.00,Wunderground v.1.15,2013-04-04 16:03:00,
2013-04-04 12:06:00,45.5,16.6,30.29,SW,215,1.0,5.0,31,0.00,,,0.00,Wunderground v.1.15,2013-04-04 16:06:00,
2013-04-04 12:08:00,45.9,17.7,30.28,NNW,343,7.0,7.0,32,0.00,,,0.00,Wunderground v.1.15,2013-04-04 16:08:00,
2013-04-04 12:09:00,46.1,19.2,30.28,NNW,345,6.0,7.0,34,0.00,,,0.00,Wunderground v.1.15,2013-04-04 16:09:00,
2013-04-04 12:12:00,46.3,16.5,30.28,North,6,3.0,7.0,30,0.00,,,0.00,Wunderground v.1.15,2013-04-04 16:12:00,
2013-04-04 12:13:00,46.2,16.4,30.28,North,8,4.0,8.0,30,0.00,,,0.00,Wunderground v.1.15,2013-04-04 16:13:00,
2013-04-04 12:14:00,46.2,16.4,30.28,North,10,1.0,8.0,30,0.00,,,0.00,Wunderground v.1.15,2013-04-04 16:14:00,
2013-04-04 12:17:00,46.3,17.3,30.28,North,359,7.0,13.0,31,0.00,,,0.00,Wunderground v.1.15,2013-04-04 16:17:00,
2013-04-04 12:18:00,46.3,15.7,30.28,North,349,5.0,13.0,29,0.00,,,0.00,Wunderground v.1.15,2013-04-04 16:18:00,
2013-04-04 12:19:00,46.2,15.6,30.28,WNW,293,1.0,13.0,29,0.00,,,0.00,Wunderground v.1.15,2013-04-04 16:19:00,
2013-04-04 12:23:00,46.4,16.6,30.28,NNW,335,3.0,4.0,30,0.00,,,0.00,Wunderground v.1.15,2013-04-04 16:23:00,
2013-04-04 12:24:00,46.6,18.3,30.28,NW,322,2.0,4.0,32,0.00,,,0.00,Wunderground v.1.15,2013-04-04 16:24:00,
2013-04-04 12:25:00,46.7,18.4,30.28,NNE,15,7.0,8.0,32,0.00,,,0.00,Wunderground v.1.15,2013-04-04 16:25:00,
2013-04-04 12:29:00,47.2,17.3,30.27,NNW,335,4.0,8.0,30,0.00,,,0.00,Wunderground v.1.15,2013-04-04 16:29:00,
2013-04-04 12:30:00,47.2,14.9,30.27,North,10,3.0,8.0,27,0.00,,,0.00,Wunderground v.1.15,2013-04-04 16:30:00,
2013-04-04 12:35:00,48.2,17.4,30.27,NW,314,2.0,6.0,29,0.00,,,0.00,Wunderground v.1.15,2013-04-04 16:35:00,
2013-04-04 12:40:00,48.3,18.3,30.27,WNW,301,3.0,3.0,30,0.00,,,0.00,Wunderground v.1.15,2013-04-04 16:40:00,
2013-04-04 12:41:00,48.2,17.4,30.27,WNW,288,0.0,3.0,29,0.00,,,0.00,Wunderground v.1.15,2013-04-04 16:41:00,
2013-04-04 12:42:00,48.3,18.3,30.27,WSW,253,0.0,3.0,30,0.00,,,0.00,Wunderground v.1.15,2013-04-04 16:42:00,
2013-04-04 12:45:00,48.5,18.4,30.26,NW,319,1.0,5.0,30,0.00,,,0.00,Wunderground v.1.15,2013-04-04 16:45:00,
2013-04-04 12:47:00,48.9,19.5,30.26,NNW,343,3.0,5.0,31,0.00,,,0.00,Wunderground v.1.15,2013-04-04 16:47:00,
2013-04-04 12:50:00,49.1,16.5,30.26,NNW,342,6.0,6.0,27,0.00,,,0.00,Wunderground v.1.15,2013-04-04 16:50:00,
2013-04-04 12:52:00,48.6,14.3,30.26,NE,43,6.0,9.0,25,0.00,,,0.00,Wunderground v.1.15,2013-04-04 16:52:00,
2013-04-04 12:55:00,48.6,17.7,30.26,NW,310,8.0,9.0,29,0.00,,,0.00,Wunderground v.1.15,2013-04-04 16:55:00,
2013-04-04 12:57:00,48.7,17.0,30.26,North,359,4.0,10.0,28,0.00,,,0.00,Wunderground v.1.15,2013-04-04 16:57:00,
2013-04-04 13:00:00,48.9,19.5,30.26,NNW,343,6.0,7.0,31,0.00,,,0.00,Wunderground v.1.15,2013-04-04 17:00:00,
2013-04-04 13:01:00,48.9,19.5,30.26,NNW,347,6.0,7.0,31,0.00,,,0.00,Wunderground v.1.15,2013-04-04 17:01:00,
2013-04-04 13:02:00,49.0,17.3,30.26,NNW,335,6.0,7.0,28,0.00,,,0.00,Wunderground v.1.15,2013-04-04 17:02:00,
2013-04-04 13:03:00,49.0,17.3,30.26,North,360,3.0,7.0,28,0.00,,,0.00,Wunderground v.1.15,2013-04-04 17:03:00,
2013-04-04 13:05:00,48.9,18.0,30.26,NNW,342,5.0,7.0,29,0.00,,,0.00,Wunderground v.1.15,2013-04-04 17:05:00,
2013-04-04 13:06:00,48.8,18.7,30.26,WNW,293,2.0,7.0,30,0.00,,,0.00,Wunderground v.1.15,2013-04-04 17:06:00,
2013-04-04 13:07:00,49.0,19.6,30.26,NW,323,4.0,7.0,31,0.00,,,0.00,Wunderground v.1.15,2013-04-04 17:07:00,
2013-04-04 13:08:00,49.1,19.7,30.26,North,350,8.0,8.0,31,0.00,,,0.00,Wunderground v.1.15,2013-04-04 17:08:00,
2013-04-04 13:10:00,49.2,19.8,30.26,North,356,12.0,12.0,31,0.00,,,0.00,Wunderground v.1.15,2013-04-04 17:10:00,
2013-04-04 13:11:00,49.2,19.8,30.26,North,354,11.0,12.0,31,0.00,,,0.00,Wunderground v.1.15,2013-04-04 17:11:00,
2013-04-04 13:12:00,49.1,17.3,30.26,NW,316,7.0,12.0,28,0.00,,,0.00,Wunderground v.1.15,2013-04-04 17:12:00,
2013-04-04 13:13:00,49.0,16.4,30.26,NNW,335,5.0,12.0,27,0.00,,,0.00,Wunderground v.1.15,2013-04-04 17:13:00,
2013-04-04 13:16:00,48.7,17.0,30.26,North,352,5.0,12.0,28,0.00,,,0.00,Wunderground v.1.15,2013-04-04 17:16:00,
2013-04-04 13:17:00,48.7,17.0,30.26,NNW,330,7.0,12.0,28,0.00,,,0.00,Wunderground v.1.15,2013-04-04 17:17:00,
2013-04-04 13:18:00,48.6,18.5,30.26,NNW,340,4.0,12.0,30,0.00,,,0.00,Wunderground v.1.15,2013-04-04 17:18:00,
2013-04-04 13:21:00,49.0,18.1,30.26,NW,309,2.0,5.0,29,0.00,,,0.00,Wunderground v.1.15,2013-04-04 17:21:00,
2013-04-04 13:22:00,49.1,18.2,30.26,NW,326,7.0,7.0,29,0.00,,,0.00,Wunderground v.1.15,2013-04-04 17:22:00,
2013-04-04 13:23:00,49.2,17.4,30.25,North,354,9.0,9.0,28,0.00,,,0.00,Wunderground v.1.15,2013-04-04 17:23:00,
2013-04-04 13:27:00,48.9,15.5,30.25,North,1,7.0,10.0,26,0.00,,,0.00,Wunderground v.1.15,2013-04-04 17:27:00,
2013-04-04 13:29:00,48.6,14.3,30.25,NNW,347,9.0,14.0,25,0.00,,,0.00,Wunderground v.1.15,2013-04-04 17:29:00,
2013-04-04 13:32:00,47.9,14.6,30.25,NNE,25,6.0,9.0,26,0.00,,,0.00,Wunderground v.1.15,2013-04-04 17:32:00,
2013-04-04 13:34:00,48.0,15.6,30.25,North,352,2.0,9.0,27,0.00,,,0.00,Wunderground v.1.15,2013-04-04 17:34:00,
2013-04-04 13:37:00,48.9,18.8,30.25,NW,318,0.0,9.0,30,0.00,,,0.00,Wunderground v.1.15,2013-04-04 17:37:00,
2013-04-04 13:38:00,49.0,18.9,30.25,NE,47,0.0,9.0,30,0.00,,,0.00,Wunderground v.1.15,2013-04-04 17:38:00,
2013-04-04 13:39:00,49.4,17.6,30.25,NNW,327,5.0,9.0,28,0.00,,,0.00,Wunderground v.1.15,2013-04-04 17:39:00,
2013-04-04 13:42:00,49.3,17.5,30.25,NNW,335,8.0,12.0,28,0.00,,,0.00,Wunderground v.1.15,2013-04-04 17:42:00,
2013-04-04 13:43:00,49.2,17.4,30.25,NW,309,4.0,12.0,28,0.00,,,0.00,Wunderground v.1.15,2013-04-04 17:43:00,
2013-04-04 13:44:00,49.0,17.3,30.25,NNW,337,5.0,12.0,28,0.00,,,0.00,Wunderground v.1.15,2013-04-04 17:44:00,
2013-04-04 13:45:00,48.9,17.2,30.25,NW,322,5.0,12.0,28,0.00,,,0.00,Wunderground v.1.15,2013-04-04 17:45:00,
2013-04-04 13:47:00,49.0,18.9,30.25,West,276,3.0,12.0,30,0.00,,,0.00,Wunderground v.1.15,2013-04-04 17:47:00,
2013-04-04 13:48:00,49.1,19.0,30.25,WNW,300,3.0,12.0,30,0.00,,,0.00,Wunderground v.1.15,2013-04-04 17:48:00,
2013-04-04 13:50:00,49.5,20.8,30.24,WNW,293,1.0,12.0,32,0.00,,,0.00,Wunderground v.1.15,2013-04-04 17:50:00,
2013-04-04 13:53:00,50.6,18.6,30.24,NNW,340,7.0,8.0,28,0.00,,,0.00,Wunderground v.1.15,2013-04-04 17:53:00,
2013-04-04 13:55:00,50.6,18.6,30.24,NNW,335,6.0,10.0,28,0.00,,,0.00,Wunderground v.1.15,2013-04-04 17:55:00,
2013-04-04 13:58:00,49.7,17.9,30.24,North,356,7.0,14.0,28,0.00,,,0.00,Wunderground v.1.15,2013-04-04 17:58:00,
2013-04-04 13:59:00,49.6,16.1,30.24,WNW,300,3.0,14.0,26,0.00,,,0.00,Wunderground v.1.15,2013-04-04 17:59:00,
2013-04-04 14:00:00,49.5,18.5,30.24,NNW,337,6.0,9.0,29,0.00,,,0.00,Wunderground v.1.15,2013-04-04 18:00:00,
2013-04-04 14:03:00,49.3,16.7,30.24,NNW,345,4.0,11.0,27,0.00,,,0.00,Wunderground v.1.15,2013-04-04 18:03:00,
2013-04-04 14:04:00,49.1,17.3,30.24,NW,326,3.0,11.0,28,0.00,,,0.00,Wunderground v.1.15,2013-04-04 18:04:00,
2013-04-04 14:05:00,49.1,17.3,30.24,WNW,300,2.0,11.0,28,0.00,,,0.00,Wunderground v.1.15,2013-04-04 18:05:00,
2013-04-04 14:08:00,49.7,21.0,30.23,NNW,338,5.0,11.0,32,0.00,,,0.00,Wunderground v.1.15,2013-04-04 18:08:00,
2013-04-04 14:10:00,50.1,19.8,30.23,SSW,206,1.0,11.0,30,0.00,,,0.00,Wunderground v.1.15,2013-04-04 18:10:00,
2013-04-04 14:11:00,50.4,21.6,30.23,SW,232,1.0,4.0,32,0.00,,,0.00,Wunderground v.1.15,2013-04-04 18:11:00,
2013-04-04 14:12:00,50.6,20.3,30.23,SW,224,1.0,4.0,30,0.00,,,0.00,Wunderground v.1.15,2013-04-04 18:12:00,
2013-04-04 14:13:00,50.7,17.0,30.23,NW,323,2.0,4.0,26,0.00,,,0.00,Wunderground v.1.15,2013-04-04 18:13:00,
2013-04-04 14:15:00,50.9,18.1,30.23,NNW,347,4.0,7.0,27,0.00,,,0.00,Wunderground v.1.15,2013-04-04 18:15:00,
2013-04-04 14:16:00,50.9,18.9,30.23,WNW,298,6.0,7.0,28,0.00,,,0.00,Wunderground v.1.15,2013-04-04 18:16:00,
2013-04-04 14:17:00,51.0,19.0,30.23,NNW,327,4.0,7.0,28,0.00,,,0.00,Wunderground v.1.15,2013-04-04 18:17:00,
2013-04-04 14:20:00,51.0,15.4,30.23,NW,311,4.0,13.0,24,0.00,,,0.00,Wunderground v.1.15,2013-04-04 18:20:00,
2013-04-04 14:21:00,50.8,16.2,30.22,North,1,9.0,9.0,25,0.00,,,0.00,Wunderground v.1.15,2013-04-04 18:21:00,
2013-04-04 14:22:00,50.8,17.1,30.22,NNW,340,4.0,11.0,26,0.00,,,0.00,Wunderground v.1.15,2013-04-04 18:22:00,
2013-04-04 14:25:00,51.3,16.6,30.22,NW,316,6.0,11.0,25,0.00,,,0.00,Wunderground v.1.15,2013-04-04 18:25:00,
2013-04-04 14:27:00,51.6,15.9,30.22,NW,315,2.0,11.0,24,0.00,,,0.00,Wunderground v.1.15,2013-04-04 18:27:00,
2013-04-04 14:31:00,51.8,18.8,30.22,NNW,347,6.0,6.0,27,0.00,,,0.00,Wunderground v.1.15,2013-04-04 18:31:00,
2013-04-04 14:32:00,52.0,20.7,30.22,NNW,337,7.0,7.0,29,0.00,,,0.00,Wunderground v.1.15,2013-04-04 18:32:00,
2013-04-04 14:37:00,52.2,18.3,30.22,NW,309,7.0,10.0,26,0.00,,,0.00,Wunderground v.1.15,2013-04-04 18:37:00,
2013-04-04 14:42:00,51.6,18.7,30.21,NNW,343,8.0,9.0,27,0.00,,,0.00,Wunderground v.1.15,2013-04-04 18:42:00,
2013-04-04 14:47:00,51.7,19.6,30.21,NW,315,3.0,11.0,28,0.00,,,0.00,Wunderground v.1.15,2013-04-04 18:47:00,
2013-04-04 14:48:00,51.8,20.5,30.21,NW,314,2.0,11.0,29,0.00,,,0.00,Wunderground v.1.15,2013-04-04 18:48:00,
2013-04-04 14:53:00,52.8,21.4,30.20,NNW,340,4.0,6.0,29,0.00,,,0.00,Wunderground v.1.15,2013-04-04 18:53:00,
2013-04-04 14:58:00,53.9,18.8,30.20,SW,229,1.0,7.0,25,0.00,,,0.00,Wunderground v.1.15,2013-04-04 18:58:00,
2013-04-04 14:59:00,53.9,21.5,30.20,NNW,344,5.0,8.0,28,0.00,,,0.00,Wunderground v.1.15,2013-04-04 18:59:00,
2013-04-04 15:03:00,54.6,21.2,30.20,WNW,283,2.0,4.0,27,0.00,,,0.00,Wunderground v.1.15,2013-04-04 19:03:00,
2013-04-04 15:04:00,54.8,20.5,30.20,NW,314,3.0,5.0,26,0.00,,,0.00,Wunderground v.1.15,2013-04-04 19:04:00,
2013-04-04 15:08:00,54.6,20.4,30.19,NNW,328,4.0,9.0,26,0.00,,,0.00,Wunderground v.1.15,2013-04-04 19:08:00,
2013-04-04 15:10:00,54.6,20.4,30.19,WNW,301,2.0,9.0,26,0.00,,,0.00,Wunderground v.1.15,2013-04-04 19:10:00,
2013-04-04 15:13:00,54.5,19.3,30.19,WSW,257,4.0,9.0,25,0.00,,,0.00,Wunderground v.1.15,2013-04-04 19:13:00,
2013-04-04 15:14:00,54.6,21.2,30.19,NNW,333,3.0,9.0,27,0.00,,,0.00,Wunderground v.1.15,2013-04-04 19:14:00,
2013-04-04 15:15:00,54.5,20.3,30.19,NNW,331,4.0,9.0,26,0.00,,,0.00,Wunderground v.1.15,2013-04-04 19:15:00,
2013-04-04 15:18:00,54.2,18.1,30.19,North,10,14.0,18.0,24,0.00,,,0.00,Wunderground v.1.15,2013-04-04 19:18:00,
2013-04-04 15:19:00,54.1,18.1,30.19,NW,326,7.0,18.0,24,0.00,,,0.00,Wunderground v.1.15,2013-04-04 19:19:00,
2013-04-04 15:20:00,53.9,19.8,30.19,North,350,9.0,9.0,26,0.00,,,0.00,Wunderground v.1.15,2013-04-04 19:20:00,
2013-04-04 15:24:00,53.5,17.5,30.19,NNW,338,8.0,9.0,24,0.00,,,0.00,Wunderground v.1.15,2013-04-04 19:24:00,
2013-04-04 15:25:00,53.5,18.5,30.19,NW,313,5.0,9.0,25,0.00,,,0.00,Wunderground v.1.15,2013-04-04 19:25:00,
2013-04-04 15:29:00,53.8,19.7,30.18,North,11,6.0,9.0,26,0.00,,,0.00,Wunderground v.1.15,2013-04-04 19:29:00,
2013-04-04 15:30:00,53.8,17.8,30.18,NNW,335,4.0,5.0,24,0.00,,,0.00,Wunderground v.1.15,2013-04-04 19:30:00,
2013-04-04 15:34:00,54.4,18.3,30.18,WNW,303,4.0,6.0,24,0.00,,,0.00,Wunderground v.1.15,2013-04-04 19:34:00,
2013-04-04 15:35:00,54.5,18.4,30.18,North,352,4.0,6.0,24,0.00,,,0.00,Wunderground v.1.15,2013-04-04 19:35:00,
2013-04-04 15:36:00,54.6,20.4,30.18,WSW,253,3.0,6.0,26,0.00,,,0.00,Wunderground v.1.15,2013-04-04 19:36:00,
2013-04-04 15:40:00,54.5,19.3,30.17,North,6,8.0,8.0,25,0.00,,,0.00,Wunderground v.1.15,2013-04-04 19:40:00,
2013-04-04 15:41:00,54.3,17.2,30.17,NNW,331,6.0,9.0,23,0.00,,,0.00,Wunderground v.1.15,2013-04-04 19:41:00,
2013-04-04 15:42:00,54.2,17.1,30.17,NNW,342,6.0,9.0,23,0.00,,,0.00,Wunderground v.1.15,2013-04-04 19:42:00,
2013-04-04 15:45:00,53.4,16.5,30.17,NNW,340,7.0,10.0,23,0.00,,,0.00,Wunderground v.1.15,2013-04-04 19:45:00,
2013-04-04 15:47:00,53.2,19.2,30.17,West,262,2.0,10.0,26,0.00,,,0.00,Wunderground v.1.15,2013-04-04 19:47:00,
2013-04-04 15:50:00,53.8,18.7,30.17,NNW,342,4.0,5.0,25,0.00,,,0.00,Wunderground v.1.15,2013-04-04 19:50:00,
2013-04-04 15:51:00,53.8,18.7,30.17,NNW,339,4.0,5.0,25,0.00,,,0.00,Wunderground v.1.15,2013-04-04 19:51:00,
2013-04-04 15:52:00,54.0,18.0,30.17,NW,308,5.0,6.0,24,0.00,,,0.00,Wunderground v.1.15,2013-04-04 19:52:00,
2013-04-04 15:55:00,54.4,20.2,30.16,NW,326,3.0,7.0,26,0.00,,,0.00,Wunderground v.1.15,2013-04-04 19:55:00,
2013-04-04 15:57:00,54.6,21.2,30.17,NW,311,2.0,7.0,27,0.00,,,0.00,Wunderground v.1.15,2013-04-04 19:57:00,
2013-04-04 15:58:00,55.0,21.6,30.16,NNW,345,2.0,7.0,27,0.00,,,0.00,Wunderground v.1.15,2013-04-04 19:58:00,
2013-04-04 16:00:00,55.4,19.2,30.16,West,281,3.0,8.0,24,0.00,,,0.00,Wunderground v.1.15,2013-04-04 20:00:00,
2013-04-04 16:02:00,55.2,18.0,30.16,NW,322,3.0,10.0,23,0.00,,,0.00,Wunderground v.1.15,2013-04-04 20:02:00,
2013-04-04 16:03:00,54.9,19.7,30.16,NNW,343,4.0,10.0,25,0.00,,,0.00,Wunderground v.1.15,2013-04-04 20:03:00,
2013-04-04 16:04:00,54.8,17.7,30.16,NW,320,2.0,10.0,23,0.00,,,0.00,Wunderground v.1.15,2013-04-04 20:04:00,
2013-04-04 16:05:00,54.6,19.4,30.16,NNW,330,6.0,10.0,25,0.00,,,0.00,Wunderground v.1.15,2013-04-04 20:05:00,
2013-04-04 16:07:00,54.4,18.3,30.16,NNW,337,5.0,10.0,24,0.00,,,0.00,Wunderground v.1.15,2013-04-04 20:07:00,
2013-04-04 16:09:00,54.1,19.0,30.16,NNW,336,9.0,10.0,25,0.00,,,0.00,Wunderground v.1.15,2013-04-04 20:09:00,
2013-04-04 16:11:00,53.7,17.7,30.16,WNW,303,5.0,10.0,24,0.00,,,0.00,Wunderground v.1.15,2013-04-04 20:11:00,
2013-04-04 16:12:00,53.5,17.5,30.16,NNW,348,8.0,11.0,24,0.00,,,0.00,Wunderground v.1.15,2013-04-04 20:12:00,
2013-04-04 16:14:00,53.3,18.3,30.16,NW,315,5.0,15.0,25,0.00,,,0.00,Wunderground v.1.15,2013-04-04 20:14:00,
2013-04-04 16:16:00,53.3,17.4,30.15,WNW,295,5.0,15.0,24,0.00,,,0.00,Wunderground v.1.15,2013-04-04 20:16:00,
2013-04-04 16:17:00,53.4,18.4,30.15,North,355,7.0,15.0,25,0.00,,,0.00,Wunderground v.1.15,2013-04-04 20:17:00,
2013-04-04 16:19:00,53.5,17.5,30.15,NW,326,4.0,15.0,24,0.00,,,0.00,Wunderground v.1.15,2013-04-04 20:19:00,
2013-04-04 16:20:00,53.6,19.5,30.15,WNW,303,7.0,7.0,26,0.00,,,0.00,Wunderground v.1.15,2013-04-04 20:20:00,
2013-04-04 16:21:00,53.7,20.5,30.15,NW,316,2.0,8.0,27,0.00,,,0.00,Wunderground v.1.15,2013-04-04 20:21:00,
2013-04-04 16:22:00,54.0,18.9,30.15,NW,326,0.0,8.0,25,0.00,,,0.00,Wunderground v.1.15,2013-04-04 20:22:00,
2013-04-04 16:25:00,54.5,20.3,30.15,NW,326,6.0,8.0,26,0.00,,,0.00,Wunderground v.1.15,2013-04-04 20:25:00,
2013-04-04 16:27:00,54.4,19.3,30.15,NNE,28,7.0,10.0,25,0.00,,,0.00,Wunderground v.1.15,2013-04-04 20:27:00,
2013-04-04 16:30:00,54.5,20.3,30.15,West,271,6.0,6.0,26,0.00,,,0.00,Wunderground v.1.15,2013-04-04 20:30:00,
2013-04-04 16:32:00,54.5,22.0,30.15,NW,319,4.0,9.0,28,0.00,,,0.00,Wunderground v.1.15,2013-04-04 20:32:00,
2013-04-04 16:33:00,54.5,22.0,30.15,NW,326,5.0,9.0,28,0.00,,,0.00,Wunderground v.1.15,2013-04-04 20:33:00,
2013-04-04 16:35:00,54.4,21.9,30.15,NW,323,3.0,9.0,28,0.00,,,0.00,Wunderground v.1.15,2013-04-04 20:35:00,
2013-04-04 16:36:00,54.4,21.1,30.15,West,264,1.0,9.0,27,0.00,,,0.00,Wunderground v.1.15,2013-04-04 20:36:00,
2013-04-04 16:38:00,54.6,21.2,30.15,NNW,333,1.0,9.0,27,0.00,,,0.00,Wunderground v.1.15,2013-04-04 20:38:00,
2013-04-04 16:40:00,54.7,21.3,30.15,NE,43,4.0,7.0,27,0.00,,,0.00,Wunderground v.1.15,2013-04-04 20:40:00,
2013-04-04 16:41:00,54.7,22.2,30.15,WNW,300,2.0,7.0,28,0.00,,,0.00,Wunderground v.1.15,2013-04-04 20:41:00,
2013-04-04 16:43:00,54.8,24.7,30.15,NW,309,3.0,7.0,31,0.00,,,0.00,Wunderground v.1.15,2013-04-04 20:43:00,
2013-04-04 16:46:00,55.1,22.5,30.15,NNW,328,3.0,7.0,28,0.00,,,0.00,Wunderground v.1.15,2013-04-04 20:46:00,
2013-04-04 16:47:00,55.2,22.6,30.15,NNW,347,5.0,9.0,28,0.00,,,0.00,Wunderground v.1.15,2013-04-04 20:47:00,
2013-04-04 16:48:00,55.1,20.8,30.15,NNW,340,4.0,9.0,26,0.00,,,0.00,Wunderground v.1.15,2013-04-04 20:48:00,
2013-04-04 16:52:00,54.5,22.9,30.15,NW,323,2.0,10.0,29,0.00,,,0.00,Wunderground v.1.15,2013-04-04 20:52:00,
2013-04-04 16:53:00,54.4,22.8,30.15,North,4,5.0,10.0,29,0.00,,,0.00,Wunderground v.1.15,2013-04-04 20:53:00,
2013-04-04 16:57:00,54.7,22.2,30.15,WNW,300,0.0,10.0,28,0.00,,,0.00,Wunderground v.1.15,2013-04-04 20:57:00,
2013-04-04 16:58:00,54.8,22.3,30.14,West,276,2.0,10.0,28,0.00,,,0.00,Wunderground v.1.15,2013-04-04 20:58:00,
2013-04-04 16:59:00,54.8,23.1,30.14,WNW,287,3.0,10.0,29,0.00,,,0.00,Wunderground v.1.15,2013-04-04 20:59:00,
2013-04-04 17:02:00,54.5,21.2,30.14,NNW,335,6.0,13.0,27,0.00,,,0.00,Wunderground v.1.15,2013-04-04 21:02:00,
2013-04-04 17:03:00,54.4,21.1,30.14,NNW,330,7.0,13.0,27,0.00,,,0.00,Wunderground v.1.15,2013-04-04 21:03:00,
2013-04-04 17:04:00,53.9,21.5,30.14,North,354,5.0,13.0,28,0.00,,,0.00,Wunderground v.1.15,2013-04-04 21:04:00,
2013-04-04 17:07:00,53.8,22.2,30.14,NNW,330,2.0,13.0,29,0.00,,,0.00,Wunderground v.1.15,2013-04-04 21:07:00,
2013-04-04 17:08:00,53.8,22.2,30.14,WNW,295,5.0,13.0,29,0.00,,,0.00,Wunderground v.1.15,2013-04-04 21:08:00,
2013-04-04 17:09:00,53.9,22.3,30.14,WNW,293,2.0,13.0,29,0.00,,,0.00,Wunderground v.1.15,2013-04-04 21:09:00,
2013-04-04 17:13:00,53.7,21.3,30.14,North,349,5.0,7.0,28,0.00,,,0.00,Wunderground v.1.15,2013-04-04 21:13:00,
2013-04-04 17:14:00,53.5,22.0,30.14,West,267,3.0,7.0,29,0.00,,,0.00,Wunderground v.1.15,2013-04-04 21:14:00,
2013-04-04 17:18:00,53.5,22.8,30.14,SW,216,2.0,7.0,30,0.00,,,0.00,Wunderground v.1.15,2013-04-04 21:18:00,
2013-04-04 17:19:00,53.5,22.0,30.14,WSW,239,3.0,7.0,29,0.00,,,0.00,Wunderground v.1.15,2013-04-04 21:19:00,
2013-04-04 17:20:00,53.5,22.0,30.14,WSW,248,2.0,7.0,29,0.00,,,0.00,Wunderground v.1.15,2013-04-04 21:20:00,
2013-04-04 17:23:00,53.5,22.0,30.14,West,274,1.0,7.0,29,0.00,,,0.00,Wunderground v.1.15,2013-04-04 21:23:00,
2013-04-04 17:25:00,53.5,21.2,30.15,WNW,283,3.0,7.0,28,0.00,,,0.00,Wunderground v.1.15,2013-04-04 21:25:00,
2013-04-04 17:29:00,52.5,21.1,30.14,West,281,3.0,10.0,29,0.00,,,0.00,Wunderground v.1.15,2013-04-04 21:29:00,
2013-04-04 17:30:00,52.5,21.1,30.14,NW,307,3.0,4.0,29,0.00,,,0.00,Wunderground v.1.15,2013-04-04 21:30:00,
2013-04-04 17:31:00,52.3,20.1,30.14,North,3,8.0,8.0,28,0.00,,,0.00,Wunderground v.1.15,2013-04-04 21:31:00,
2013-04-04 17:34:00,51.7,18.7,30.14,NW,326,5.0,12.0,27,0.00,,,0.00,Wunderground v.1.15,2013-04-04 21:34:00,
2013-04-04 17:35:00,51.6,18.7,30.14,NNW,347,4.0,12.0,27,0.00,,,0.00,Wunderground v.1.15,2013-04-04 21:35:00,
2013-04-04 17:36:00,51.5,19.4,30.14,NNW,345,2.0,12.0,28,0.00,,,0.00,Wunderground v.1.15,2013-04-04 21:36:00,
2013-04-04 17:39:00,51.5,19.4,30.14,North,350,4.0,12.0,28,0.00,,,0.00,Wunderground v.1.15,2013-04-04 21:39:00,
2013-04-04 17:40:00,51.5,18.6,30.14,West,281,6.0,6.0,27,0.00,,,0.00,Wunderground v.1.15,2013-04-04 21:40:00,
2013-04-04 17:41:00,51.5,18.6,30.14,WSW,240,2.0,6.0,27,0.00,,,0.00,Wunderground v.1.15,2013-04-04 21:41:00,
2013-04-04 17:44:00,51.6,21.1,30.14,ESE,121,1.0,7.0,30,0.00,,,0.00,Wunderground v.1.15,2013-04-04 21:44:00,
2013-04-04 17:45:00,51.8,20.5,30.14,West,266,1.0,7.0,29,0.00,,,0.00,Wunderground v.1.15,2013-04-04 21:45:00,
2013-04-04 17:46:00,51.8,20.5,30.14,NW,316,0.0,7.0,29,0.00,,,0.00,Wunderground v.1.15,2013-04-04 21:46:00,
2013-04-04 17:47:00,51.9,21.4,30.14,West,267,2.0,7.0,30,0.00,,,0.00,Wunderground v.1.15,2013-04-04 21:47:00,
2013-04-04 17:50:00,52.2,20.0,30.14,North,350,3.0,10.0,28,0.00,,,0.00,Wunderground v.1.15,2013-04-04 21:50:00,
2013-04-04 17:51:00,52.1,19.9,30.14,NW,312,2.0,9.0,28,0.00,,,0.00,Wunderground v.1.15,2013-04-04 21:51:00,
2013-04-04 17:52:00,52.0,19.9,30.14,NW,312,4.0,9.0,28,0.00,,,0.00,Wunderground v.1.15,2013-04-04 21:52:00,
2013-04-04 17:55:00,51.7,20.4,30.14,WSW,246,1.0,9.0,29,0.00,,,0.00,Wunderground v.1.15,2013-04-04 21:55:00,
2013-04-04 17:56:00,51.6,19.5,30.14,West,276,1.0,9.0,28,0.00,,,0.00,Wunderground v.1.15,2013-04-04 21:56:00,
2013-04-04 17:58:00,51.3,20.1,30.14,NNW,346,1.0,9.0,29,0.00,,,0.00,Wunderground v.1.15,2013-04-04 21:58:00,
2013-04-04 18:00:00,51.1,19.9,30.14,NNW,328,3.0,4.0,29,0.00,,,0.00,Wunderground v.1.15,2013-04-04 22:00:00,
2013-04-04 18:01:00,50.9,19.7,30.14,WNW,298,3.0,4.0,29,0.00,,,0.00,Wunderground v.1.15,2013-04-04 22:01:00,
2013-04-04 18:02:00,50.9,20.5,30.14,WNW,295,0.0,4.0,30,0.00,,,0.00,Wunderground v.1.15,2013-04-04 22:02:00,
2013-04-04 18:03:00,50.8,20.4,30.14,West,259,0.0,4.0,30,0.00,,,0.00,Wunderground v.1.15,2013-04-04 22:03:00,
2013-04-04 18:05:00,50.4,20.1,30.14,West,277,3.0,4.0,30,0.00,,,0.00,Wunderground v.1.15,2013-04-04 22:05:00,
2013-04-04 18:07:00,50.2,19.9,30.14,NW,326,1.0,4.0,30,0.00,,,0.00,Wunderground v.1.15,2013-04-04 22:07:00,
2013-04-04 18:08:00,50.0,20.5,30.14,WNW,297,2.0,4.0,31,0.00,,,0.00,Wunderground v.1.15,2013-04-04 22:08:00,
2013-04-04 18:11:00,49.4,20.7,30.14,SW,214,3.0,4.0,32,0.00,,,0.00,Wunderground v.1.15,2013-04-04 22:11:00,
2013-04-04 18:12:00,49.1,20.5,30.14,West,274,3.0,6.0,32,0.00,,,0.00,Wunderground v.1.15,2013-04-04 22:12:00,
2013-04-04 18:13:00,48.9,20.3,30.14,West,266,4.0,6.0,32,0.00,,,0.00,Wunderground v.1.15,2013-04-04 22:13:00,
2013-04-04 18:16:00,48.3,20.5,30.14,West,262,1.0,6.0,33,0.00,,,0.00,Wunderground v.1.15,2013-04-04 22:16:00,
2013-04-04 18:17:00,48.1,21.0,30.14,WSW,257,0.0,6.0,34,0.00,,,0.00,Wunderground v.1.15,2013-04-04 22:17:00,
2013-04-04 18:20:00,47.6,20.6,30.14,West,273,1.0,2.0,34,0.00,,,0.00,Wunderground v.1.15,2013-04-04 22:20:00,
2013-04-04 18:21:00,47.5,21.2,30.14,WNW,291,3.0,4.0,35,0.00,,,0.00,Wunderground v.1.15,2013-04-04 22:21:00,
2013-04-04 18:22:00,47.4,21.1,30.14,West,262,1.0,4.0,35,0.00,,,0.00,Wunderground v.1.15,2013-04-04 22:22:00,
2013-04-04 18:26:00,46.9,20.6,30.14,NNW,335,5.0,5.0,35,0.00,,,0.00,Wunderground v.1.15,2013-04-04 22:26:00,
2013-04-04 18:27:00,46.8,21.2,30.14,NW,321,1.0,5.0,36,0.00,,,0.00,Wunderground v.1.15,2013-04-04 22:27:00,
2013-04-04 18:28:00,46.7,20.5,30.13,NNW,333,3.0,7.0,35,0.00,,,0.00,Wunderground v.1.15,2013-04-04 22:28:00,
2013-04-04 18:32:00,46.3,21.4,30.13,West,269,1.0,8.0,37,0.00,,,0.00,Wunderground v.1.15,2013-04-04 22:32:00,
2013-04-04 18:33:00,46.1,21.9,30.14,WNW,300,0.0,8.0,38,0.00,,,0.00,Wunderground v.1.15,2013-04-04 22:33:00,
2013-04-04 18:37:00,45.8,21.6,30.14,NW,312,1.0,8.0,38,0.00,,,0.00,Wunderground v.1.15,2013-04-04 22:37:00,
2013-04-04 18:38:00,45.8,21.6,30.14,WNW,301,1.0,8.0,38,0.00,,,0.00,Wunderground v.1.15,2013-04-04 22:38:00,
2013-04-04 18:42:00,45.4,21.9,30.14,SW,235,0.0,5.0,39,0.00,,,0.00,Wunderground v.1.15,2013-04-04 22:42:00,
2013-04-04 18:43:00,45.4,21.9,30.14,West,278,2.0,5.0,39,0.00,,,0.00,Wunderground v.1.15,2013-04-04 22:43:00,
2013-04-04 18:47:00,45.1,22.2,30.14,NW,311,0.0,5.0,40,0.00,,,0.00,Wunderground v.1.15,2013-04-04 22:47:00,
2013-04-04 18:48:00,45.0,22.1,30.14,WSW,250,3.0,5.0,40,0.00,,,0.00,Wunderground v.1.15,2013-04-04 22:48:00,
2013-04-04 18:49:00,44.9,22.0,30.14,SW,224,1.0,7.0,40,0.00,,,0.00,Wunderground v.1.15,2013-04-04 22:49:00,
2013-04-04 18:52:00,44.7,21.8,30.14,West,281,0.0,7.0,40,0.00,,,0.00,Wunderground v.1.15,2013-04-04 22:52:00,
2013-04-04 18:53:00,44.7,22.4,30.14,West,277,0.0,7.0,41,0.00,,,0.00,Wunderground v.1.15,2013-04-04 22:53:00,
2013-04-04 18:55:00,44.5,22.8,30.14,SW,219,2.0,7.0,42,0.00,,,0.00,Wunderground v.1.15,2013-04-04 22:55:00,
2013-04-04 18:57:00,44.3,22.6,30.14,WNW,290,3.0,7.0,42,0.00,,,0.00,Wunderground v.1.15,2013-04-04 22:57:00,
2013-04-04 18:58:00,44.2,22.5,30.14,West,278,0.0,7.0,42,0.00,,,0.00,Wunderground v.1.15,2013-04-04 22:58:00,
2013-04-04 18:59:00,44.1,22.4,30.14,SW,221,4.0,7.0,42,0.00,,,0.00,Wunderground v.1.15,2013-04-04 22:59:00,
2013-04-04 19:00:00,44.1,22.4,30.14,West,273,1.0,2.0,42,0.00,,,0.00,Wunderground v.1.15,2013-04-04 23:00:00,
2013-04-04 19:03:00,43.8,22.7,30.14,WNW,297,4.0,4.0,43,0.00,,,0.00,Wunderground v.1.15,2013-04-04 23:03:00,
2013-04-04 19:05:00,43.6,22.5,30.14,NNE,18,8.0,8.0,43,0.00,,,0.00,Wunderground v.1.15,2013-04-04 23:05:00,
2013-04-04 19:08:00,43.4,22.9,30.14,NW,323,4.0,9.0,44,0.00,,,0.00,Wunderground v.1.15,2013-04-04 23:08:00,
2013-04-04 19:09:00,43.3,22.3,30.14,NNW,338,3.0,9.0,43,0.00,,,0.00,Wunderground v.1.15,2013-04-04 23:09:00,
2013-04-04 19:10:00,43.3,22.3,30.14,WSW,255,1.0,9.0,43,0.00,,,0.00,Wunderground v.1.15,2013-04-04 23:10:00,
2013-04-04 19:13:00,43.0,23.1,30.14,WNW,290,1.0,5.0,45,0.00,,,0.00,Wunderground v.1.15,2013-04-04 23:13:00,
2013-04-04 19:15:00,42.9,23.0,30.14,NW,309,4.0,5.0,45,0.00,,,0.00,Wunderground v.1.15,2013-04-04 23:15:00,
2013-04-04 19:17:00,42.8,22.4,30.14,West,266,1.0,5.0,44,0.00,,,0.00,Wunderground v.1.15,2013-04-04 23:17:00,
2013-04-04 19:19:00,42.6,22.7,30.15,SSW,208,0.0,5.0,45,0.00,,,0.00,Wunderground v.1.15,2013-04-04 23:19:00,
2013-04-04 19:20:00,42.6,22.7,30.15,NW,316,2.0,4.0,45,0.00,,,0.00,Wunderground v.1.15,2013-04-04 23:20:00,
2013-04-04 19:22:00,42.5,23.2,30.15,NW,316,3.0,14.0,46,0.00,,,0.00,Wunderground v.1.15,2013-04-04 23:22:00,
2013-04-04 19:24:00,42.4,23.1,30.15,West,271,0.0,14.0,46,0.00,,,0.00,Wunderground v.1.15,2013-04-04 23:24:00,
2013-04-04 19:25:00,42.3,23.0,30.15,SW,236,2.0,14.0,46,0.00,,,0.00,Wunderground v.1.15,2013-04-04 23:25:00,
2013-04-04 19:27:00,42.2,22.9,30.15,WSW,253,1.0,14.0,46,0.00,,,0.00,Wunderground v.1.15,2013-04-04 23:27:00,
2013-04-04 19:29:00,42.1,22.8,30.15,NNW,335,0.0,14.0,46,0.00,,,0.00,Wunderground v.1.15,2013-04-04 23:29:00,
2013-04-04 19:30:00,42.0,22.7,30.15,WNW,288,3.0,7.0,46,0.00,,,0.00,Wunderground v.1.15,2013-04-04 23:30:00,
2013-04-04 19:32:00,41.9,23.1,30.15,ESE,105,1.0,7.0,47,0.00,,,0.00,Wunderground v.1.15,2013-04-04 23:32:00,
2013-04-04 19:34:00,41.7,22.4,30.15,West,259,2.0,7.0,46,0.00,,,0.00,Wunderground v.1.15,2013-04-04 23:34:00,
2013-04-04 19:36:00,41.6,22.8,30.15,NNW,341,0.0,7.0,47,0.00,,,0.00,Wunderground v.1.15,2013-04-04 23:36:00,
2013-04-04 19:37:00,41.5,22.7,30.15,ESE,121,0.0,7.0,47,0.00,,,0.00,Wunderground v.1.15,2013-04-04 23:37:00,
2013-04-04 19:39:00,41.3,22.6,30.15,South,172,2.0,7.0,47,0.00,,,0.00,Wunderground v.1.15,2013-04-04 23:39:00,
2013-04-04 19:42:00,41.1,22.4,30.15,WNW,300,2.0,5.0,47,0.00,,,0.00,Wunderground v.1.15,2013-04-04 23:42:00,
2013-04-04 19:45:00,40.9,22.2,30.15,West,276,3.0,8.0,47,0.00,,,0.00,Wunderground v.1.15,2013-04-04 23:45:00,
2013-04-04 19:47:00,40.8,22.6,30.15,WNW,285,3.0,8.0,48,0.00,,,0.00,Wunderground v.1.15,2013-04-04 23:47:00,
2013-04-04 19:50:00,40.6,22.4,30.15,WSW,250,2.0,4.0,48,0.00,,,0.00,Wunderground v.1.15,2013-04-04 23:50:00,
2013-04-04 19:52:00,40.5,22.3,30.16,NW,307,1.0,4.0,48,0.00,,,0.00,Wunderground v.1.15,2013-04-04 23:52:00,
2013-04-04 19:55:00,40.3,22.1,30.15,NW,318,2.0,5.0,48,0.00,,,0.00,Wunderground v.1.15,2013-04-04 23:55:00,
2013-04-04 19:57:00,40.2,22.5,30.15,West,269,3.0,8.0,49,0.00,,,0.00,Wunderground v.1.15,2013-04-04 23:57:00,
2013-04-04 19:58:00,40.2,22.5,30.15,WNW,284,3.0,8.0,49,0.00,,,0.00,Wunderground v.1.15,2013-04-04 23:58:00,
2013-04-04 20:00:00,40.1,22.4,30.15,West,273,0.0,4.0,49,0.00,,,0.00,Wunderground v.1.15,2013-04-05 00:00:00,
2013-04-04 20:02:00,40.0,22.4,30.15,WSW,258,4.0,6.0,49,0.00,,,0.00,Wunderground v.1.15,2013-04-05 00:02:00,
2013-04-04 20:03:00,40.0,22.4,30.15,NW,307,7.0,7.0,49,0.00,,,0.00,Wunderground v.1.15,2013-04-05 00:03:00,
2013-04-04 20:05:00,39.9,22.7,30.15,WSW,242,4.0,7.0,50,0.00,,,0.00,Wunderground v.1.15,2013-04-05 00:05:00,
2013-04-04 20:07:00,39.8,22.7,30.15,NNW,337,5.0,8.0,50,0.00,,,0.00,Wunderground v.1.15,2013-04-05 00:07:00,
2013-04-04 20:08:00,39.7,23.0,30.15,WSW,243,0.0,8.0,51,0.00,,,0.00,Wunderground v.1.15,2013-04-05 00:08:00,
2013-04-04 20:09:00,39.7,23.0,30.15,WNW,288,3.0,8.0,51,0.00,,,0.00,Wunderground v.1.15,2013-04-05 00:09:00,
2013-04-04 20:10:00,39.6,22.9,30.15,West,260,0.0,3.0,51,0.00,,,0.00,Wunderground v.1.15,2013-04-05 00:10:00,
2013-04-04 20:12:00,39.5,22.8,30.15,NNW,333,3.0,5.0,51,0.00,,,0.00,Wunderground v.1.15,2013-04-05 00:12:00,
2013-04-04 20:13:00,39.5,23.3,30.15,WSW,243,1.0,5.0,52,0.00,,,0.00,Wunderground v.1.15,2013-04-05 00:13:00,
2013-04-04 20:14:00,39.4,23.2,30.15,WNW,295,0.0,5.0,52,0.00,,,0.00,Wunderground v.1.15,2013-04-05 00:14:00,
2013-04-04 20:16:00,39.3,23.6,30.15,WNW,302,2.0,5.0,53,0.00,,,0.00,Wunderground v.1.15,2013-04-05 00:16:00,
2013-04-04 20:17:00,39.2,23.0,30.15,NW,311,6.0,6.0,52,0.00,,,0.00,Wunderground v.1.15,2013-04-05 00:17:00,
2013-04-04 20:18:00,39.2,23.5,30.15,North,353,6.0,8.0,53,0.00,,,0.00,Wunderground v.1.15,2013-04-05 00:18:00,
2013-04-04 20:19:00,39.1,23.4,30.15,NNE,16,4.0,8.0,53,0.00,,,0.00,Wunderground v.1.15,2013-04-05 00:19:00,
2013-04-04 20:22:00,39.0,23.7,30.16,NW,321,1.0,7.0,54,0.00,,,0.00,Wunderground v.1.15,2013-04-05 00:22:00,
2013-04-04 20:23:00,39.0,23.7,30.15,WNW,285,2.0,7.0,54,0.00,,,0.00,Wunderground v.1.15,2013-04-05 00:23:00,
2013-04-04 20:25:00,38.9,23.7,30.16,WNW,294,4.0,7.0,54,0.00,,,0.00,Wunderground v.1.15,2013-04-05 00:25:00,
2013-04-04 20:27:00,38.8,24.0,30.16,SSW,205,2.0,7.0,55,0.00,,,0.00,Wunderground v.1.15,2013-04-05 00:27:00,
2013-04-04 20:28:00,38.8,24.0,30.16,WSW,252,3.0,7.0,55,0.00,,,0.00,Wunderground v.1.15,2013-04-05 00:28:00,
2013-04-04 20:30:00,38.7,23.9,30.16,WNW,293,3.0,3.0,55,0.00,,,0.00,Wunderground v.1.15,2013-04-05 00:30:00,
2013-04-04 20:32:00,38.7,23.9,30.16,NNW,330,2.0,7.0,55,0.00,,,0.00,Wunderground v.1.15,2013-04-05 00:32:00,
2013-04-04 20:33:00,38.7,24.3,30.16,NNW,343,7.0,7.0,56,0.00,,,0.00,Wunderground v.1.15,2013-04-05 00:33:00,
2013-04-04 20:35:00,38.6,24.2,30.16,NW,315,3.0,7.0,56,0.00,,,0.00,Wunderground v.1.15,2013-04-05 00:35:00,
2013-04-04 20:37:00,38.5,24.1,30.16,North,6,4.0,7.0,56,0.00,,,0.00,Wunderground v.1.15,2013-04-05 00:37:00,
2013-04-04 20:38:00,38.5,24.1,30.16,WNW,283,0.0,7.0,56,0.00,,,0.00,Wunderground v.1.15,2013-04-05 00:38:00,
2013-04-04 20:40:00,38.4,24.5,30.16,WNW,300,1.0,3.0,57,0.00,,,0.00,Wunderground v.1.15,2013-04-05 00:40:00,
2013-04-04 20:42:00,38.3,24.4,30.16,NW,305,1.0,3.0,57,0.00,,,0.00,Wunderground v.1.15,2013-04-05 00:42:00,
2013-04-04 20:43:00,38.3,24.8,30.16,NW,318,4.0,6.0,58,0.00,,,0.00,Wunderground v.1.15,2013-04-05 00:43:00,
2013-04-04 20:45:00,38.2,24.7,30.16,SSW,212,2.0,6.0,58,0.00,,,0.00,Wunderground v.1.15,2013-04-05 00:45:00,
2013-04-04 20:47:00,38.1,24.6,30.16,WNW,297,2.0,6.0,58,0.00,,,0.00,Wunderground v.1.15,2013-04-05 00:47:00,
2013-04-04 20:48:00,38.0,24.9,30.16,WNW,296,2.0,6.0,59,0.00,,,0.00,Wunderground v.1.15,2013-04-05 00:48:00,
2013-04-04 20:50:00,38.0,24.9,30.16,West,281,2.0,2.0,59,0.00,,,0.00,Wunderground v.1.15,2013-04-05 00:50:00,
2013-04-04 20:51:00,37.9,24.8,30.16,West,281,2.0,4.0,59,0.00,,,0.00,Wunderground v.1.15,2013-04-05 00:51:00,
2013-04-04 20:53:00,37.9,25.2,30.16,NW,312,0.0,4.0,60,0.00,,,0.00,Wunderground v.1.15,2013-04-05 00:53:00,
2013-04-04 20:55:00,37.8,25.1,30.16,SW,232,4.0,4.0,60,0.00,,,0.00,Wunderground v.1.15,2013-04-05 00:55:00,
2013-04-04 20:56:00,37.8,25.1,30.16,SSE,162,1.0,4.0,60,0.00,,,0.00,Wunderground v.1.15,2013-04-05 00:56:00,
2013-04-04 20:58:00,37.7,25.1,30.16,NW,318,2.0,7.0,60,0.00,,,0.00,Wunderground v.1.15,2013-04-05 00:58:00,
2013-04-04 20:59:00,37.7,25.1,30.16,NW,308,2.0,7.0,60,0.00,,,0.00,Wunderground v.1.15,2013-04-05 00:59:00,
2013-04-04 21:00:00,37.6,25.4,30.16,NNW,336,2.0,3.0,61,0.00,,,0.00,Wunderground v.1.15,2013-04-05 01:00:00,
2013-04-04 21:01:00,37.6,25.4,30.16,WSW,243,3.0,3.0,61,0.00,,,0.00,Wunderground v.1.15,2013-04-05 01:01:00,
2013-04-04 21:03:00,37.5,25.3,30.16,West,281,5.0,5.0,61,0.00,,,0.00,Wunderground v.1.15,2013-04-05 01:03:00,
2013-04-04 21:05:00,37.5,25.7,30.16,WNW,283,2.0,7.0,62,0.00,,,0.00,Wunderground v.1.15,2013-04-05 01:05:00,
2013-04-04 21:07:00,37.4,25.6,30.16,West,274,1.0,7.0,62,0.00,,,0.00,Wunderground v.1.15,2013-04-05 01:07:00,
2013-04-04 21:09:00,37.4,25.6,30.15,NW,313,3.0,7.0,62,0.00,,,0.00,Wunderground v.1.15,2013-04-05 01:09:00,
2013-04-04 21:10:00,37.4,25.6,30.15,West,263,1.0,3.0,62,0.00,,,0.00,Wunderground v.1.15,2013-04-05 01:10:00,
2013-04-04 21:11:00,37.3,25.5,30.15,SSW,197,0.0,3.0,62,0.00,,,0.00,Wunderground v.1.15,2013-04-05 01:11:00,
2013-04-04 21:12:00,37.3,25.5,30.15,SW,227,0.0,3.0,62,0.00,,,0.00,Wunderground v.1.15,2013-04-05 01:12:00,
2013-04-04 21:14:00,37.3,25.8,30.15,WNW,296,0.0,3.0,63,0.00,,,0.00,Wunderground v.1.15,2013-04-05 01:14:00,
2013-04-04 21:16:00,37.2,25.8,30.15,WNW,299,1.0,5.0,63,0.00,,,0.00,Wunderground v.1.15,2013-04-05 01:16:00,
2013-04-04 21:17:00,37.1,25.7,30.15,WNW,284,1.0,5.0,63,0.00,,,0.00,Wunderground v.1.15,2013-04-05 01:17:00,
2013-04-04 21:20:00,37.0,25.9,30.15,NW,311,1.0,1.0,64,0.00,,,0.00,Wunderground v.1.15,2013-04-05 01:20:00,
2013-04-04 21:21:00,37.0,25.9,30.15,SSW,212,2.0,3.0,64,0.00,,,0.00,Wunderground v.1.15,2013-04-05 01:21:00,
2013-04-04 21:22:00,36.9,25.9,30.15,NW,316,1.0,3.0,64,0.00,,,0.00,Wunderground v.1.15,2013-04-05 01:22:00,
2013-04-04 21:25:00,36.9,26.2,30.15,West,260,1.0,5.0,65,0.00,,,0.00,Wunderground v.1.15,2013-04-05 01:25:00,
2013-04-04 21:26:00,36.9,26.2,30.15,WSW,253,1.0,5.0,65,0.00,,,0.00,Wunderground v.1.15,2013-04-05 01:26:00,
2013-04-04 21:27:00,36.9,25.9,30.15,West,259,1.0,5.0,64,0.00,,,0.00,Wunderground v.1.15,2013-04-05 01:27:00,
2013-04-04 21:30:00,36.8,26.1,30.14,NNW,332,0.0,2.0,65,0.00,,,0.00,Wunderground v.1.15,2013-04-05 01:30:00,
2013-04-04 21:32:00,36.8,26.1,30.14,WSW,249,0.0,2.0,65,0.00,,,0.00,Wunderground v.1.15,2013-04-05 01:32:00,
2013-04-04 21:33:00,36.7,26.0,30.14,North,9,2.0,2.0,65,0.00,,,0.00,Wunderground v.1.15,2013-04-05 01:33:00,
2013-04-04 21:36:00,36.6,25.9,30.14,WSW,243,1.0,3.0,65,0.00,,,0.00,Wunderground v.1.15,2013-04-05 01:36:00,
2013-04-04 21:37:00,36.6,26.3,30.14,WNW,290,0.0,3.0,66,0.00,,,0.00,Wunderground v.1.15,2013-04-05 01:37:00,
2013-04-04 21:38:00,36.6,26.3,30.14,WNW,291,0.0,3.0,66,0.00,,,0.00,Wunderground v.1.15,2013-04-05 01:38:00,
2013-04-04 21:42:00,36.5,26.2,30.14,WNW,298,2.0,3.0,66,0.00,,,0.00,Wunderground v.1.15,2013-04-05 01:42:00,
2013-04-04 21:43:00,36.4,26.1,30.14,West,263,0.0,3.0,66,0.00,,,0.00,Wunderground v.1.15,2013-04-05 01:43:00,
2013-04-04 21:47:00,36.3,26.4,30.14,NNW,332,1.0,5.0,67,0.00,,,0.00,Wunderground v.1.15,2013-04-05 01:47:00,
2013-04-04 21:48:00,36.3,26.4,30.14,SW,217,3.0,5.0,67,0.00,,,0.00,Wunderground v.1.15,2013-04-05 01:48:00,
2013-04-04 21:49:00,36.3,26.4,30.14,West,269,1.0,5.0,67,0.00,,,0.00,Wunderground v.1.15,2013-04-05 01:49:00,
2013-04-04 21:52:00,36.2,26.6,30.14,NW,316,1.0,4.0,68,0.00,,,0.00,Wunderground v.1.15,2013-04-05 01:52:00,
2013-04-04 21:53:00,36.2,26.6,30.14,NNW,332,5.0,5.0,68,0.00,,,0.00,Wunderground v.1.15,2013-04-05 01:53:00,
2013-04-04 21:54:00,36.1,26.6,30.14,NW,311,2.0,5.0,68,0.00,,,0.00,Wunderground v.1.15,2013-04-05 01:54:00,
2013-04-04 21:55:00,36.1,26.6,30.14,NW,311,4.0,5.0,68,0.00,,,0.00,Wunderground v.1.15,2013-04-05 01:55:00,
2013-04-04 21:57:00,36.1,26.9,30.13,SE,138,1.0,8.0,69,0.00,,,0.00,Wunderground v.1.15,2013-04-05 01:57:00,
2013-04-04 21:58:00,36.1,26.9,30.14,SSW,212,0.0,8.0,69,0.00,,,0.00,Wunderground v.1.15,2013-04-05 01:58:00,
2013-04-04 21:59:00,36.0,26.8,30.13,West,262,2.0,8.0,69,0.00,,,0.00,Wunderground v.1.15,2013-04-05 01:59:00,
2013-04-04 22:00:00,36.0,26.8,30.13,North,4,4.0,5.0,69,0.00,,,0.00,Wunderground v.1.15,2013-04-05 02:00:00,
2013-04-04 22:03:00,36.1,26.9,30.13,NW,304,3.0,8.0,69,0.00,,,0.00,Wunderground v.1.15,2013-04-05 02:03:00,
2013-04-04 22:04:00,36.1,26.9,30.13,NW,316,4.0,8.0,69,0.00,,,0.00,Wunderground v.1.15,2013-04-05 02:04:00,
2013-04-04 22:05:00,36.1,26.9,30.13,SW,217,2.0,8.0,69,0.00,,,0.00,Wunderground v.1.15,2013-04-05 02:05:00,
2013-04-04 22:08:00,36.0,27.2,30.14,WSW,252,1.0,8.0,70,0.00,,,0.00,Wunderground v.1.15,2013-04-05 02:08:00,
2013-04-04 22:10:00,35.9,27.1,30.13,WNW,301,4.0,5.0,70,0.00,,,0.00,Wunderground v.1.15,2013-04-05 02:10:00,
2013-04-04 22:13:00,35.7,26.9,30.13,SSW,210,0.0,5.0,70,0.00,,,0.00,Wunderground v.1.15,2013-04-05 02:13:00,
2013-04-04 22:15:00,35.6,26.8,30.13,SW,222,1.0,5.0,70,0.00,,,0.00,Wunderground v.1.15,2013-04-05 02:15:00,
2013-04-04 22:17:00,35.6,26.8,30.13,WNW,283,0.0,5.0,70,0.00,,,0.00,Wunderground v.1.15,2013-04-05 02:17:00,
2013-04-04 22:19:00,35.5,27.0,30.13,SW,221,0.0,5.0,71,0.00,,,0.00,Wunderground v.1.15,2013-04-05 02:19:00,
2013-04-04 22:20:00,35.4,26.9,30.13,SSW,205,1.0,2.0,71,0.00,,,0.00,Wunderground v.1.15,2013-04-05 02:20:00,
2013-04-04 22:22:00,35.4,26.9,30.13,West,263,0.0,2.0,71,0.00,,,0.00,Wunderground v.1.15,2013-04-05 02:22:00,
2013-04-04 22:24:00,35.3,26.8,30.13,SW,226,2.0,2.0,71,0.00,,,0.00,Wunderground v.1.15,2013-04-05 02:24:00,
2013-04-04 22:25:00,35.3,27.2,30.12,WSW,255,0.0,2.0,72,0.00,,,0.00,Wunderground v.1.15,2013-04-05 02:25:00,
2013-04-04 22:27:00,35.1,27.0,30.12,WSW,250,1.0,3.0,72,0.00,,,0.00,Wunderground v.1.15,2013-04-05 02:27:00,
2013-04-04 22:29:00,35.1,27.3,30.12,WSW,250,0.0,3.0,73,0.00,,,0.00,Wunderground v.1.15,2013-04-05 02:29:00,
2013-04-04 22:30:00,35.1,27.3,30.12,WSW,250,0.0,1.0,73,0.00,,,0.00,Wunderground v.1.15,2013-04-05 02:30:00,
2013-04-04 22:32:00,35.0,27.2,30.12,West,279,0.0,2.0,73,0.00,,,0.00,Wunderground v.1.15,2013-04-05 02:32:00,
2013-04-04 22:33:00,35.0,27.2,30.12,WSW,244,2.0,4.0,73,0.00,,,0.00,Wunderground v.1.15,2013-04-05 02:33:00,
2013-04-04 22:36:00,34.9,27.1,30.12,North,349,2.0,4.0,73,0.00,,,0.00,Wunderground v.1.15,2013-04-05 02:36:00,
2013-04-04 22:37:00,34.9,27.5,30.12,West,279,0.0,4.0,74,0.00,,,0.00,Wunderground v.1.15,2013-04-05 02:37:00,
2013-04-04 22:38:00,34.8,27.4,30.12,West,277,0.0,4.0,74,0.00,,,0.00,Wunderground v.1.15,2013-04-05 02:38:00,
2013-04-04 22:41:00,34.8,27.4,30.12,WNW,291,0.0,4.0,74,0.00,,,0.00,Wunderground v.1.15,2013-04-05 02:41:00,
2013-04-04 22:42:00,34.7,27.3,30.12,SW,221,0.0,4.0,74,0.00,,,0.00,Wunderground v.1.15,2013-04-05 02:42:00,
2013-04-04 22:43:00,34.7,27.3,30.11,WNW,286,4.0,4.0,74,0.00,,,0.00,Wunderground v.1.15,2013-04-05 02:43:00,
2013-04-04 22:47:00,34.6,27.5,30.11,West,264,0.0,6.0,75,0.00,,,0.00,Wunderground v.1.15,2013-04-05 02:47:00,
2013-04-04 22:48:00,34.6,27.5,30.11,WNW,285,0.0,6.0,75,0.00,,,0.00,Wunderground v.1.15,2013-04-05 02:48:00,
2013-04-04 22:52:00,34.5,27.7,30.11,WNW,294,0.0,4.0,76,0.00,,,0.00,Wunderground v.1.15,2013-04-05 02:52:00,
2013-04-04 22:53:00,34.5,27.7,30.11,WNW,298,1.0,4.0,76,0.00,,,0.00,Wunderground v.1.15,2013-04-05 02:53:00,
2013-04-04 22:57:00,34.5,28.0,30.11,NW,323,0.0,4.0,77,0.00,,,0.00,Wunderground v.1.15,2013-04-05 02:57:00,
2013-04-04 22:58:00,34.5,28.0,30.11,NW,315,0.0,4.0,77,0.00,,,0.00,Wunderground v.1.15,2013-04-05 02:58:00,
2013-04-04 22:59:00,34.5,28.0,30.11,West,262,1.0,4.0,77,0.00,,,0.00,Wunderground v.1.15,2013-04-05 02:59:00,
2013-04-04 23:02:00,34.4,27.9,30.11,West,278,0.0,3.0,77,0.00,,,0.00,Wunderground v.1.15,2013-04-05 03:02:00,
2013-04-04 23:03:00,34.4,27.9,30.11,West,262,0.0,3.0,77,0.00,,,0.00,Wunderground v.1.15,2013-04-05 03:03:00,
2013-04-04 23:04:00,34.4,28.2,30.11,WNW,291,2.0,3.0,78,0.00,,,0.00,Wunderground v.1.15,2013-04-05 03:04:00,
2013-04-04 23:07:00,34.3,28.2,30.11,NW,314,0.0,3.0,78,0.00,,,0.00,Wunderground v.1.15,2013-04-05 03:07:00,
2013-04-04 23:08:00,34.3,28.2,30.11,West,274,0.0,3.0,78,0.00,,,0.00,Wunderground v.1.15,2013-04-05 03:08:00,
2013-04-04 23:10:00,34.2,28.1,30.11,WSW,238,0.0,1.0,78,0.00,,,0.00,Wunderground v.1.15,2013-04-05 03:10:00,
2013-04-04 23:12:00,34.1,28.0,30.11,WSW,255,0.0,3.0,78,0.00,,,0.00,Wunderground v.1.15,2013-04-05 03:12:00,
2013-04-04 23:13:00,34.1,28.3,30.11,West,262,0.0,3.0,79,0.00,,,0.00,Wunderground v.1.15,2013-04-05 03:13:00,
2013-04-04 23:14:00,34.0,28.2,30.11,West,261,0.0,3.0,79,0.00,,,0.00,Wunderground v.1.15,2013-04-05 03:14:00,
2013-04-04 23:15:00,34.0,28.2,30.11,WNW,291,1.0,3.0,79,0.00,,,0.00,Wunderground v.1.15,2013-04-05 03:15:00,
2013-04-04 23:17:00,34.0,28.2,30.11,WNW,298,0.0,4.0,79,0.00,,,0.00,Wunderground v.1.15,2013-04-05 03:17:00,
2013-04-04 23:19:00,34.0,28.2,30.11,WSW,248,2.0,4.0,79,0.00,,,0.00,Wunderground v.1.15,2013-04-05 03:19:00,
2013-04-04 23:20:00,34.0,28.5,30.10,WSW,257,2.0,4.0,80,0.00,,,0.00,Wunderground v.1.15,2013-04-05 03:20:00,
2013-04-04 23:23:00,34.0,28.5,30.10,West,267,0.0,5.0,80,0.00,,,0.00,Wunderground v.1.15,2013-04-05 03:23:00,
2013-04-04 23:25:00,34.1,28.6,30.11,WSW,252,0.0,5.0,80,0.00,,,0.00,Wunderground v.1.15,2013-04-05 03:25:00,
2013-04-04 23:28:00,34.1,28.6,30.10,WNW,297,2.0,5.0,80,0.00,,,0.00,Wunderground v.1.15,2013-04-05 03:28:00,
2013-04-04 23:30:00,34.1,28.6,30.10,NW,319,2.0,2.0,80,0.00,,,0.00,Wunderground v.1.15,2013-04-05 03:30:00,
2013-04-04 23:31:00,34.1,28.6,30.10,West,260,1.0,2.0,80,0.00,,,0.00,Wunderground v.1.15,2013-04-05 03:31:00,
2013-04-04 23:33:00,34.1,28.9,30.10,SW,228,10.0,11.0,81,0.00,,,0.00,Wunderground v.1.15,2013-04-05 03:33:00,
2013-04-04 23:35:00,34.2,29.0,30.10,NW,305,3.0,11.0,81,0.00,,,0.00,Wunderground v.1.15,2013-04-05 03:35:00,
2013-04-04 23:36:00,34.2,29.0,30.10,WSW,257,2.0,11.0,81,0.00,,,0.00,Wunderground v.1.15,2013-04-05 03:36:00,
2013-04-04 23:38:00,34.2,29.0,30.10,West,281,1.0,11.0,81,0.00,,,0.00,Wunderground v.1.15,2013-04-05 03:38:00,
2013-04-04 23:40:00,34.3,29.1,30.10,SW,231,1.0,3.0,81,0.00,,,0.00,Wunderground v.1.15,2013-04-05 03:40:00,
2013-04-04 23:42:00,34.3,29.1,30.10,WNW,300,2.0,3.0,81,0.00,,,0.00,Wunderground v.1.15,2013-04-05 03:42:00,
2013-04-04 23:44:00,34.3,29.1,30.10,WSW,248,1.0,3.0,81,0.00,,,0.00,Wunderground v.1.15,2013-04-05 03:44:00,
2013-04-04 23:45:00,34.2,29.0,30.10,North,359,1.0,3.0,81,0.00,,,0.00,Wunderground v.1.15,2013-04-05 03:45:00,
2013-04-04 23:47:00,34.2,29.0,30.10,NW,315,4.0,4.0,81,0.00,,,0.00,Wunderground v.1.15,2013-04-05 03:47:00,
2013-04-04 23:48:00,34.2,29.0,30.10,NW,324,2.0,7.0,81,0.00,,,0.00,Wunderground v.1.15,2013-04-05 03:48:00,
2013-04-04 23:49:00,34.2,29.0,30.10,West,274,3.0,7.0,81,0.00,,,0.00,Wunderground v.1.15,2013-04-05 03:49:00,
2013-04-04 23:51:00,34.2,29.0,30.10,WSW,256,4.0,4.0,81,0.00,,,0.00,Wunderground v.1.15,2013-04-05 03:51:00,
2013-04-04 23:53:00,34.3,29.1,30.10,West,269,1.0,5.0,81,0.00,,,0.00,Wunderground v.1.15,2013-04-05 03:53:00,
2013-04-04 23:55:00,34.3,29.1,30.10,NW,313,1.0,5.0,81,0.00,,,0.00,Wunderground v.1.15,2013-04-05 03:55:00,
2013-04-04 23:56:00,34.3,29.1,30.10,NW,311,4.0,6.0,81,0.00,,,0.00,Wunderground v.1.15,2013-04-05 03:56:00,
2013-04-04 23:58:00,34.4,29.5,30.10,West,280,0.0,6.0,82,0.00,,,0.00,Wunderground v.1.15,2013-04-05 03:58:00,
2013-04-04 23:59:00,34.4,29.2,30.10,North,354,1.0,6.0,81,0.00,,,0.00,Wunderground v.1.15,2013-04-05 03:59:00,